GW2826 Weather Reports


time (UTC)temp
C
wind
direction
speed
KPH
gust
KPH
rain 1hr
cm
rain 24hr
cm
rain mn
cm
humidity
%
barometer
mb
20260510225704 8 293 8.0 22.5 0.00 0.00 0.00 90 1002.1
20260510225603 8 293 9.7 22.5 0.00 0.00 0.00 90 1002.1
20260510225503 8 293 9.7 22.5 0.00 0.00 0.00 89 1002.1
20260510225403 8 290 9.7 22.5 0.00 0.00 0.00 90 1001.9
20260510225306 8 292 8.0 22.5 0.00 0.00 0.00 90 1002.0
20260510225203 8 292 8.0 22.5 0.00 0.00 0.00 90 1002.1
20260510225103 8 289 8.0 22.5 0.00 0.00 0.00 90 1002.0
20260510225003 8 287 8.0 22.5 0.00 0.00 0.00 90 1002.2
20260510224924 8 286 8.0 22.5 0.00 0.00 0.00 90 1002.2
20260510224803 8 287 8.0 22.5 0.00 0.00 0.00 90 1002.2
20260510224704 8 283 6.4 17.7 0.00 0.00 0.00 90 1002.0
20260510224624 8 284 6.4 17.7 0.00 0.00 0.00 90 1002.0
20260510224503 8 284 6.4 16.1 0.00 0.00 0.00 90 1002.4
20260510224403 8 284 6.4 20.9 0.00 0.00 0.00 90 1002.2
20260510224303 8 282 8.0 20.9 0.00 0.00 0.00 90 1002.4
20260510224203 8 283 8.0 20.9 0.00 0.00 0.00 90 1002.2
20260510224103 8 283 8.0 20.9 0.00 0.00 0.00 90 1002.0
20260510224003 8 286 8.0 20.9 0.00 0.00 0.00 90 1002.2
20260510223903 8 287 8.0 20.9 0.00 0.00 0.00 90 1002.2
20260510223803 8 285 8.0 20.9 0.00 0.00 0.00 90 1002.1
20260510223703 8 288 8.0 20.9 0.00 0.00 0.00 90 1002.4
20260510223624 8 292 8.0 20.9 0.00 0.00 0.00 90 1002.4
20260510223524 8 291 6.4 20.9 0.00 0.00 0.00 90 1002.4
20260510223403 8 290 8.0 20.9 0.00 0.00 0.00 90 1002.3
20260510223324 8 292 8.0 20.9 0.00 0.00 0.00 90 1002.3
20260510223203 8 290 8.0 20.9 0.00 0.00 0.00 90 1002.5
20260510223103 8 288 8.0 20.9 0.00 0.00 0.00 90 1002.6
20260510223003 8 287 8.0 20.9 0.00 0.00 0.00 89 1002.4
20260510222903 8 288 8.0 20.9 0.00 0.00 0.00 89 1002.4
20260510222803 8 289 8.0 20.9 0.00 0.00 0.00 89 1002.5
20260510222703 8 286 8.0 20.9 0.00 0.00 0.00 89 1002.3
20260510222603 8 284 8.0 20.9 0.00 0.00 0.00 89 1002.4
20260510222503 8 283 8.0 20.9 0.00 0.00 0.00 89 1002.5
20260510222424 8 282 8.0 20.9 0.00 0.00 0.00 89 1002.5
20260510222324 8 283 8.0 20.9 0.00 0.00 0.00 89 1002.5
20260510222224 8 285 8.0 20.9 0.00 0.00 0.00 89 1002.5
20260510222124 8 285 8.0 20.9 0.00 0.00 0.00 89 1002.4
20260510222003 8 287 8.0 20.9 0.00 0.00 0.00 89 1002.5
20260510221903 8 286 8.0 20.9 0.00 0.00 0.00 89 1002.5
20260510221803 8 287 8.0 20.9 0.00 0.00 0.00 89 1002.7
20260510221724 8 288 8.0 20.9 0.00 0.00 0.00 89 1002.7
20260510221603 8 290 8.0 20.9 0.00 0.00 0.00 88 1002.6
20260510221503 8 290 8.0 20.9 0.00 0.00 0.00 88 1002.6
20260510221403 8 291 8.0 20.9 0.00 0.00 0.00 88 1002.6
20260510221303 8 291 8.0 20.9 0.00 0.00 0.00 88 1002.6
20260510221203 8 288 8.0 20.9 0.00 0.00 0.00 87 1002.6
20260510221103 8 286 8.0 20.9 0.00 0.00 0.00 87 1002.8
20260510221024 8 284 8.0 20.9 0.00 0.00 0.00 87 1002.8
20260510220903 8 282 8.0 16.1 0.00 0.00 0.00 87 1002.5
20260510220824 8 282 8.0 16.1 0.00 0.00 0.00 87 1002.5
20260510220703 8 283 8.0 17.7 0.00 0.00 0.00 87 1002.7
20260510220603 8 284 8.0 17.7 0.00 0.00 0.00 87 1002.8
20260510220503 8 284 8.0 17.7 0.00 0.00 0.00 87 1002.8
20260510220403 8 284 8.0 17.7 0.00 0.00 0.00 87 1003.0
20260510220303 8 286 8.0 17.7 0.00 0.00 0.00 87 1003.1
20260510220203 8 288 8.0 17.7 0.00 0.00 0.00 86 1002.8
20260510220124 8 290 8.0 17.7 0.00 0.00 0.00 86 1002.8
20260510220003 8 291 8.0 17.7 0.00 0.00 0.00 86 1003.0
20260510215903 8 293 8.0 17.7 0.00 0.00 0.00 86 1003.0
20260510215803 8 291 9.7 17.7 0.00 0.00 0.00 85 1003.0
20260510215703 8 291 9.7 17.7 0.00 0.00 0.00 85 1003.1
20260510215603 8 290 9.7 17.7 0.00 0.00 0.00 85 1003.0
20260510215504 8 289 9.7 17.7 0.00 0.00 0.00 85 1003.0
20260510215403 8 289 9.7 17.7 0.00 0.00 0.00 85 1002.9
20260510215306 8 288 9.7 17.7 0.00 0.00 0.00 85 1003.0
20260510215203 8 290 8.0 17.7 0.00 0.00 0.00 84 1003.1
20260510215103 8 293 8.0 17.7 0.00 0.00 0.00 84 1003.0
20260510215003 8 294 8.0 17.7 0.00 0.00 0.00 84 1003.2
20260510214903 8 293 8.0 17.7 0.00 0.00 0.00 84 1003.3
20260510214803 8 294 6.4 17.7 0.00 0.00 0.00 84 1003.2
20260510214703 8 295 6.4 16.1 0.00 0.00 0.00 84 1003.1
20260510214603 8 297 6.4 16.1 0.00 0.00 0.00 84 1003.3
20260510214504 8 298 6.4 16.1 0.00 0.00 0.00 84 1003.0
20260510214403 8 297 6.4 16.1 0.00 0.00 0.00 84 1003.3
20260510214303 8 299 6.4 16.1 0.00 0.00 0.00 84 1003.1
20260510214203 8 294 8.0 16.1 0.00 0.00 0.00 84 1003.2
20260510214103 8 291 6.4 16.1 0.00 0.00 0.00 84 1003.2
20260510214003 8 291 6.4 17.7 0.00 0.00 0.00 84 1003.2
20260510213903 8 291 8.0 17.7 0.00 0.00 0.00 84 1003.2
20260510213803 8 292 8.0 17.7 0.00 0.00 0.00 84 1002.9
20260510213703 8 291 8.0 17.7 0.00 0.00 0.00 84 1003.2
20260510213603 8 291 8.0 17.7 0.00 0.00 0.00 84 1003.4
20260510213503 8 290 8.0 17.7 0.00 0.00 0.00 84 1003.3
20260510213403 8 291 8.0 17.7 0.00 0.00 0.00 83 1003.2
20260510213303 8 289 8.0 17.7 0.00 0.00 0.00 83 1003.3
20260510213224 8 288 8.0 17.7 0.00 0.00 0.00 83 1003.3
20260510213103 8 292 8.0 17.7 0.00 0.00 0.00 83 1003.5
20260510213003 8 289 8.0 17.7 0.00 0.00 0.00 83 1003.5
20260510212903 8 289 8.0 16.1 0.00 0.00 0.00 83 1003.4
20260510212803 8 289 6.4 16.1 0.00 0.00 0.00 83 1003.4
20260510212703 8 287 6.4 12.9 0.00 0.00 0.00 83 1003.2
20260510212603 8 289 6.4 12.9 0.00 0.00 0.00 83 1003.5
20260510212503 8 289 6.4 14.5 0.00 0.00 0.00 83 1003.4
20260510212403 8 290 6.4 14.5 0.00 0.00 0.00 82 1003.5
20260510212306 8 288 6.4 14.5 0.00 0.00 0.00 82 1003.5
20260510212203 8 288 6.4 14.5 0.00 0.00 0.00 82 1003.3
20260510212103 8 289 6.4 14.5 0.00 0.00 0.00 82 1003.6
20260510212003 8 289 6.4 14.5 0.00 0.00 0.00 82 1003.6
20260510211903 8 290 8.0 14.5 0.00 0.00 0.00 82 1003.6
20260510211803 8 289 6.4 14.5 0.00 0.00 0.00 82 1003.7
20260510211705 8 290 6.4 14.5 0.00 0.00 0.00 82 1003.6
20260510211604 8 290 6.4 14.5 0.00 0.00 0.00 82 1003.5
20260510211505 8 293 6.4 14.5 0.00 0.00 0.00 82 1003.5
20260510211404 8 292 8.0 14.5 0.00 0.00 0.00 82 1003.7
20260510211305 8 295 6.4 14.5 0.00 0.00 0.00 82 1003.5
20260510211225 8 296 6.4 14.5 0.00 0.00 0.00 82 1003.5
20260510211104 8 296 6.4 12.9 0.00 0.00 0.00 82 1003.5
20260510211005 8 295 6.4 12.9 0.00 0.00 0.00 82 1003.3
20260510210904 8 296 6.4 12.9 0.00 0.00 0.00 82 1003.6
20260510210804 8 296 6.4 14.5 0.00 0.00 0.00 82 1003.5
20260510210704 8 297 6.4 14.5 0.00 0.00 0.00 82 1003.6
20260510210605 8 296 6.4 14.5 0.00 0.00 0.00 82 1003.7
20260510210504 8 289 6.4 14.5 0.00 0.00 0.00 82 1003.6
20260510210404 8 287 6.4 14.5 0.00 0.00 0.00 82 1003.3
20260510210325 8 286 6.4 14.5 0.00 0.00 0.00 82 1003.3
20260510210205 8 285 6.4 14.5 0.00 0.00 0.00 82 1003.6
20260510210125 8 285 6.4 14.5 0.00 0.00 0.00 82 1003.6
20260510210005 8 285 6.4 14.5 0.00 0.00 0.00 82 1003.4
20260510205904 8 281 6.4 14.5 0.00 0.00 0.00 82 1003.6
20260510205804 8 279 4.8 14.5 0.00 0.00 0.00 82 1003.8
20260510205705 8 276 4.8 14.5 0.00 0.00 0.00 82 1003.6
20260510205604 8 273 4.8 12.9 0.00 0.00 0.00 82 1003.8
20260510205504 8 283 4.8 12.9 0.00 0.00 0.00 82 1003.4
20260510205404 8 284 4.8 12.9 0.00 0.00 0.00 82 1003.5
20260510205306 8 284 3.2 12.9 0.00 0.00 0.00 82 1003.7
20260510205204 8 291 3.2 12.9 0.00 0.00 0.00 82 1003.7
20260510205104 8 293 3.2 12.9 0.00 0.00 0.00 81 1003.7
20260510205004 8 292 3.2 9.7 0.00 0.00 0.00 81 1003.7
20260510204904 8 306 3.2 9.7 0.00 0.00 0.00 81 1003.7
20260510204805 8 305 3.2 9.7 0.00 0.00 0.00 81 1003.7
20260510204704 8 298 3.2 9.7 0.00 0.00 0.00 81 1003.9
20260510204626 8 295 3.2 9.7 0.00 0.00 0.00 81 1003.9
20260510204504 8 291 3.2 9.7 0.00 0.00 0.00 81 1003.9
20260510204425 8 296 3.2 9.7 0.00 0.00 0.00 81 1003.9
20260510204304 8 312 3.2 9.7 0.00 0.00 0.00 81 1003.9
20260510204204 8 314 3.2 9.7 0.00 0.00 0.00 80 1003.8
20260510204126 8 330 3.2 9.7 0.00 0.00 0.00 80 1003.8
20260510204004 8 351 3.2 11.3 0.00 0.00 0.00 80 1003.8
20260510203905 8 360 1.6 11.3 0.00 0.00 0.00 79 1003.9
20260510203805 8 1 3.2 11.3 0.00 0.00 0.00 79 1003.7
20260510203704 8 14 1.6 11.3 0.00 0.00 0.00 79 1003.8
20260510203605 8 23 3.2 11.3 0.00 0.00 0.00 79 1004.0
20260510203504 8 26 3.2 11.3 0.00 0.00 0.00 78 1003.9
20260510203404 8 19 3.2 11.3 0.00 0.00 0.00 78 1003.9
20260510203304 8 18 3.2 11.3 0.00 0.00 0.00 78 1003.9
20260510203205 8 6 3.2 11.3 0.00 0.00 0.00 78 1003.9
20260510203105 9 10 3.2 11.3 0.00 0.00 0.00 78 1003.9
20260510203004 9 14 3.2 11.3 0.00 0.00 0.00 78 1003.8
20260510202904 9 12 3.2 11.3 0.00 0.00 0.00 78 1004.0
20260510202804 9 13 3.2 11.3 0.00 0.00 0.00 78 1004.0
20260510202705 9 17 3.2 11.3 0.00 0.00 0.00 78 1003.9
20260510202604 9 10 3.2 11.3 0.00 0.00 0.00 78 1003.9
20260510202505 9 6 4.8 11.3 0.00 0.00 0.00 78 1004.0
20260510202404 9 17 3.2 11.3 0.00 0.00 0.00 78 1003.8
20260510202325 9 14 3.2 11.3 0.00 0.00 0.00 77 1003.8
20260510202205 9 13 3.2 11.3 0.00 0.00 0.00 77 1004.0
20260510202104 9 351 3.2 11.3 0.00 0.00 0.00 77 1003.8
20260510202004 9 319 3.2 11.3 0.00 0.00 0.00 77 1003.8
20260510201905 9 315 3.2 9.7 0.00 0.00 0.00 77 1003.9
20260510201804 9 313 3.2 9.7 0.00 0.00 0.00 77 1003.9
20260510201705 9 314 3.2 9.7 0.00 0.00 0.00 77 1003.9
20260510201604 9 312 3.2 14.5 0.00 0.00 0.00 77 1003.9
20260510201504 9 306 3.2 14.5 0.00 0.00 0.00 77 1004.1
20260510201404 9 306 4.8 14.5 0.00 0.00 0.00 77 1004.0
20260510201325 9 305 4.8 14.5 0.00 0.00 0.00 76 1004.0
20260510201205 9 296 4.8 14.5 0.00 0.00 0.00 76 1004.1
20260510201104 9 295 4.8 14.5 0.00 0.00 0.00 76 1004.0
20260510201004 9 296 4.8 14.5 0.00 0.00 0.00 76 1004.1
20260510200904 9 292 4.8 14.5 0.00 0.00 0.00 76 1004.0
20260510200804 9 290 4.8 14.5 0.00 0.00 0.00 76 1003.9
20260510200726 9 287 4.8 14.5 0.00 0.00 0.00 76 1003.9
20260510200604 9 287 4.8 14.5 0.00 0.00 0.00 76 1004.0
20260510200504 9 287 4.8 14.5 0.00 0.00 0.00 76 1004.0
20260510200404 9 286 4.8 12.9 0.00 0.00 0.00 76 1003.8
20260510200305 9 287 4.8 12.9 0.00 0.00 0.00 76 1004.1
20260510200204 9 293 4.8 12.9 0.00 0.00 0.00 76 1003.9
20260510200105 9 294 4.8 12.9 0.00 0.00 0.00 77 1004.1
20260510200026 9 299 3.2 12.9 0.00 0.00 0.00 77 1004.1
20260510195905 9 307 3.2 12.9 0.00 0.00 0.00 77 1004.0
20260510195826 9 314 3.2 12.9 0.00 0.00 0.00 77 1004.0
20260510195725 9 320 3.2 12.9 0.00 0.00 0.00 77 1004.0
20260510195604 9 317 3.2 12.9 0.00 0.00 0.00 77 1003.9
20260510195504 9 332 3.2 12.9 0.00 0.00 0.00 77 1004.0
20260510195404 9 333 3.2 12.9 0.00 0.00 0.00 78 1004.1
20260510195306 9 339 3.2 9.7 0.00 0.00 0.00 78 1004.0
20260510195225 9 342 3.2 9.7 0.00 0.00 0.00 78 1004.0
20260510195104 9 5 3.2 12.9 0.00 0.00 0.00 78 1003.9
20260510195004 10 10 3.2 12.9 0.00 0.00 0.00 77 1004.0
20260510194904 10 12 3.2 12.9 0.00 0.00 0.00 77 1004.1
20260510194804 10 6 3.2 12.9 0.00 0.00 0.00 77 1004.1
20260510194704 10 15 3.2 12.9 0.00 0.00 0.00 76 1004.1
20260510194604 10 12 4.8 12.9 0.00 0.00 0.00 76 1004.1
20260510194505 10 10 4.8 12.9 0.00 0.00 0.00 76 1004.0
20260510194404 10 9 4.8 12.9 0.00 0.00 0.00 76 1003.8
20260510194304 10 13 4.8 12.9 0.00 0.00 0.00 76 1004.0
20260510194204 10 12 4.8 12.9 0.00 0.00 0.00 76 1004.1
20260510194126 10 11 3.2 12.9 0.00 0.00 0.00 76 1004.1
20260510194004 10 3 3.2 11.3 0.00 0.00 0.00 75 1004.0
20260510193904 10 358 3.2 11.3 0.00 0.00 0.00 75 1004.1
20260510193804 10 343 3.2 11.3 0.00 0.00 0.00 74 1004.1
20260510193704 10 338 3.2 11.3 0.00 0.00 0.00 74 1004.3
20260510193604 10 348 3.2 11.3 0.00 0.00 0.00 74 1003.9
20260510193504 10 349 3.2 11.3 0.00 0.00 0.00 75 1004.0
20260510193404 10 345 3.2 11.3 0.00 0.00 0.00 75 1004.0
20260510193304 10 340 3.2 11.3 0.00 0.00 0.00 75 1004.1
20260510193204 10 337 3.2 11.3 0.00 0.00 0.00 75 1004.1
20260510193104 10 342 3.2 11.3 0.00 0.00 0.00 75 1004.0
20260510193004 10 350 3.2 11.3 0.00 0.00 0.00 75 1004.0
20260510192905 10 360 3.2 11.3 0.00 0.00 0.00 74 1004.1
20260510192825 10 9 3.2 11.3 0.00 0.00 0.00 74 1004.1
20260510192705 10 10 3.2 11.3 0.00 0.00 0.00 74 1003.9
20260510192604 10 8 3.2 11.3 0.00 0.00 0.00 74 1004.0
20260510192505 10 7 3.2 11.3 0.00 0.00 0.00 74 1004.0
20260510192404 10 24 3.2 11.3 0.00 0.00 0.00 74 1004.1
20260510192306 10 19 3.2 11.3 0.00 0.00 0.00 74 1003.9
20260510192204 10 15 3.2 11.3 0.00 0.00 0.00 75 1003.8
20260510192104 10 15 3.2 11.3 0.00 0.00 0.00 75 1003.8
20260510192004 10 9 3.2 9.7 0.00 0.00 0.00 75 1004.0
20260510191904 10 1 3.2 9.7 0.00 0.00 0.00 75 1004.0
20260510191804 10 359 3.2 9.7 0.00 0.00 0.00 75 1004.0
20260510191705 10 4 3.2 12.9 0.00 0.00 0.00 75 1004.0
20260510191605 10 7 3.2 12.9 0.00 0.00 0.00 75 1004.0
20260510191505 10 4 3.2 12.9 0.00 0.00 0.00 75 1004.2
20260510191404 10 3 3.2 12.9 0.00 0.00 0.00 74 1004.2
20260510191325 10 2 3.2 14.5 0.00 0.00 0.00 74 1004.2
20260510191225 10 7 3.2 14.5 0.00 0.00 0.00 74 1004.0
20260510191104 10 10 3.2 14.5 0.00 0.00 0.00 74 1004.1
20260510191004 10 14 3.2 14.5 0.00 0.00 0.00 73 1003.8
20260510190904 10 16 3.2 14.5 0.00 0.00 0.00 73 1004.0
20260510190825 10 21 3.2 14.5 0.00 0.00 0.00 73 1004.0
20260510190705 10 16 3.2 14.5 0.00 0.00 0.00 73 1004.1
20260510190604 10 16 3.2 14.5 0.00 0.00 0.00 74 1004.1
20260510190504 10 17 3.2 14.5 0.00 0.00 0.00 74 1004.2
20260510190425 10 13 3.2 14.5 0.00 0.00 0.00 74 1004.2
20260510190304 11 12 3.2 14.5 0.00 0.00 0.00 74 1004.3
20260510190225 11 14 3.2 14.5 0.00 0.00 0.00 74 1004.3
20260510190104 11 16 3.2 12.9 0.00 0.00 0.00 74 1004.2
20260510190004 11 11 3.2 12.9 0.00 0.00 0.00 74 1004.0
20260510185904 11 12 3.2 12.9 0.00 0.00 0.00 73 1004.1
20260510185804 11 2 3.2 12.9 0.00 0.00 0.00 73 1004.1
20260510185704 11 360 3.2 12.9 0.00 0.00 0.00 73 1004.1
20260510185604 11 360 3.2 12.9 0.00 0.00 0.00 72 1004.1
20260510185505 11 6 3.2 12.9 0.00 0.00 0.00 72 1004.2
20260510185404 11 9 3.2 11.3 0.00 0.00 0.00 72 1004.3
20260510185325 11 7 3.2 11.3 0.00 0.00 0.00 72 1004.3
20260510185204 11 3 3.2 11.3 0.00 0.00 0.00 72 1004.3
20260510185104 11 6 3.2 9.7 0.00 0.00 0.00 72 1004.3
20260510185025 11 12 3.2 11.3 0.00 0.00 0.00 71 1004.3
20260510184925 11 18 3.2 11.3 0.00 0.00 0.00 71 1004.1
20260510184804 11 20 3.2 11.3 0.00 0.00 0.00 70 1004.2
20260510184704 11 20 3.2 11.3 0.00 0.00 0.00 70 1004.4
20260510184625 11 22 3.2 11.3 0.00 0.00 0.00 70 1004.4
20260510184505 11 25 3.2 11.3 0.00 0.00 0.00 71 1004.3
20260510184425 11 26 3.2 11.3 0.00 0.00 0.00 70 1004.3
20260510184304 11 32 3.2 11.3 0.00 0.00 0.00 71 1004.2
20260510184204 11 30 3.2 11.3 0.00 0.00 0.00 71 1004.3
20260510184104 11 23 3.2 11.3 0.00 0.00 0.00 72 1004.2
20260510184005 11 22 3.2 11.3 0.00 0.00 0.00 71 1004.2
20260510183904 11 19 3.2 11.3 0.00 0.00 0.00 72 1004.3
20260510183804 11 19 3.2 11.3 0.00 0.00 0.00 73 1004.4
20260510183704 11 19 3.2 11.3 0.00 0.00 0.00 73 1004.2
20260510183604 11 25 3.2 12.9 0.00 0.00 0.00 73 1004.2
20260510183504 11 24 3.2 12.9 0.00 0.00 0.00 74 1004.3
20260510183425 11 27 3.2 12.9 0.00 0.00 0.00 74 1004.3
20260510183325 11 23 4.8 12.9 0.00 0.00 0.00 74 1004.5
20260510183204 11 24 4.8 12.9 0.00 0.00 0.00 74 1004.7
20260510183104 11 24 4.8 12.9 0.00 0.00 0.00 73 1004.4
20260510183004 11 21 4.8 12.9 0.00 0.00 0.00 73 1004.2
20260510182904 11 22 4.8 12.9 0.00 0.00 0.00 73 1004.3
20260510182804 11 24 4.8 12.9 0.00 0.00 0.00 73 1004.5
20260510182704 11 25 4.8 12.9 0.00 0.00 0.00 72 1004.2
20260510182604 11 18 4.8 12.9 0.00 0.00 0.00 72 1004.3
20260510182504 11 16 4.8 12.9 0.00 0.00 0.00 71 1004.3
20260510182425 11 11 4.8 11.3 0.00 0.00 0.00 71 1004.3
20260510182306 11 3 4.8 12.9 0.00 0.00 0.00 71 1004.3
20260510182204 11 14 4.8 16.1 0.00 0.00 0.00 70 1004.4
20260510182105 11 11 4.8 16.1 0.00 0.00 0.00 70 1004.5
20260510182004 11 12 6.4 16.1 0.00 0.00 0.00 69 1004.5
20260510181904 12 11 6.4 16.1 0.00 0.00 0.00 68 1004.4
20260510181804 12 9 6.4 16.1 0.00 0.00 0.00 67 1004.4
20260510181704 12 15 6.4 16.1 0.00 0.00 0.00 67 1004.5
20260510181604 12 18 6.4 16.1 0.00 0.00 0.00 67 1004.7
20260510181504 12 18 6.4 16.1 0.00 0.00 0.00 66 1004.4
20260510181404 12 19 6.4 16.1 0.00 0.00 0.00 66 1004.5
20260510181304 12 19 6.4 16.1 0.00 0.00 0.00 65 1004.4
20260510181204 12 16 6.4 16.1 0.00 0.00 0.00 65 1004.5
20260510181104 12 21 4.8 14.5 0.00 0.00 0.00 64 1004.4
20260510181025 12 23 4.8 14.5 0.00 0.00 0.00 64 1004.4
20260510180904 12 22 4.8 14.5 0.00 0.00 0.00 64 1004.4
20260510180804 12 22 4.8 12.9 0.00 0.00 0.00 64 1004.6
20260510180704 12 17 4.8 11.3 0.00 0.00 0.00 64 1004.3
20260510180604 12 18 4.8 11.3 0.00 0.00 0.00 63 1004.4
20260510180504 12 12 3.2 11.3 0.00 0.00 0.00 63 1004.4
20260510180404 12 10 3.2 11.3 0.00 0.00 0.00 63 1004.6
20260510180304 12 16 3.2 11.3 0.00 0.00 0.00 64 1004.4
20260510180204 12 12 3.2 11.3 0.00 0.00 0.00 63 1004.3
20260510180125 12 1 3.2 11.3 0.00 0.00 0.00 63 1004.3
20260510180005 12 347 3.2 11.3 0.00 0.00 0.00 63 1004.5
20260510175904 12 343 3.2 11.3 0.00 0.00 0.00 63 1004.5
20260510175825 12 338 3.2 11.3 0.00 0.00 0.00 63 1004.5
20260510175704 12 331 3.2 11.3 0.00 0.00 0.00 63 1004.4
20260510175604 12 323 3.2 11.3 0.00 0.00 0.00 61 1004.5
20260510175504 12 317 4.8 11.3 0.00 0.00 0.00 62 1004.7
20260510175404 13 313 4.8 11.3 0.00 0.00 0.00 62 1004.7
20260510175306 13 295 4.8 11.3 0.00 0.00 0.00 62 1004.7
20260510175225 13 290 4.8 11.3 0.00 0.00 0.00 62 1004.7
20260510175104 13 289 4.8 12.9 0.00 0.00 0.00 60 1004.7
20260510175004 13 285 4.8 12.9 0.00 0.00 0.00 59 1004.7
20260510174904 13 284 4.8 12.9 0.00 0.00 0.00 58 1004.7
20260510174804 13 281 6.4 12.9 0.00 0.00 0.00 58 1004.6
20260510174704 13 277 6.4 12.9 0.00 0.00 0.00 58 1004.8
20260510174604 13 278 6.4 12.9 0.00 0.00 0.00 58 1004.6
20260510174504 13 287 4.8 12.9 0.00 0.00 0.00 59 1004.7
20260510174425 13 286 6.4 12.9 0.00 0.00 0.00 58 1004.7
20260510174304 13 285 4.8 12.9 0.00 0.00 0.00 59 1004.6
20260510174204 13 288 4.8 14.5 0.00 0.00 0.00 57 1004.7
20260510174104 13 291 4.8 14.5 0.00 0.00 0.00 57 1004.8
20260510174004 13 293 6.4 14.5 0.00 0.00 0.00 57 1004.6
20260510173904 13 287 6.4 17.7 0.00 0.00 0.00 57 1004.8
20260510173825 13 290 6.4 17.7 0.00 0.00 0.00 57 1004.8
20260510173704 13 291 6.4 17.7 0.00 0.00 0.00 56 1004.9
20260510173605 13 289 6.4 17.7 0.00 0.00 0.00 57 1004.7
20260510173525 13 287 6.4 17.7 0.00 0.00 0.00 58 1004.7
20260510173404 13 285 6.4 17.7 0.00 0.00 0.00 59 1004.7
20260510173304 13 285 6.4 17.7 0.00 0.00 0.00 60 1004.6
20260510173204 13 283 6.4 17.7 0.00 0.00 0.00 60 1005.0
20260510173104 13 279 8.0 17.7 0.00 0.00 0.00 60 1004.7
20260510173004 12 275 6.4 17.7 0.00 0.00 0.00 63 1004.8
20260510172904 12 276 6.4 17.7 0.00 0.00 0.00 64 1005.0
20260510172804 12 275 6.4 14.5 0.00 0.00 0.00 63 1004.7
20260510172704 12 273 6.4 14.5 0.00 0.00 0.00 61 1005.0
20260510172625 12 274 6.4 12.9 0.00 0.00 0.00 63 1005.0
20260510172504 12 270 6.4 12.9 0.00 0.00 0.00 68 1005.1
20260510172405 12 268 8.0 12.9 0.00 0.00 0.00 70 1004.9
20260510172306 11 263 8.0 12.9 0.00 0.00 0.00 68 1005.2
20260510172204 11 263 8.0 12.9 0.00 0.00 0.00 74 1005.2
20260510172104 11 262 8.0 12.9 0.00 0.00 0.00 73 1005.0
20260510172005 11 262 8.0 12.9 0.00 0.00 0.00 74 1005.0
20260510171925 11 262 8.0 12.9 0.00 0.00 0.00 73 1005.0
20260510171804 11 256 8.0 12.9 0.00 0.00 0.00 76 1005.1
20260510171704 11 257 8.0 12.9 0.00 0.00 0.00 77 1005.1
20260510171604 11 254 8.0 14.5 0.00 0.00 0.00 76 1004.9
20260510171504 11 256 8.0 14.5 0.00 0.00 0.00 76 1005.0
20260510171404 11 254 8.0 14.5 0.00 0.00 0.00 75 1005.1
20260510171304 11 255 8.0 14.5 0.00 0.00 0.00 76 1005.2
20260510171204 11 254 8.0 14.5 0.00 0.00 0.00 75 1005.2
20260510171104 11 254 8.0 14.5 0.00 0.00 0.00 75 1005.1
20260510171025 11 253 8.0 14.5 0.00 0.00 0.00 74 1005.1
20260510170904 11 255 8.0 14.5 0.00 0.00 0.00 73 1005.1
20260510170804 11 257 8.0 14.5 0.00 0.00 0.00 74 1005.3
20260510170704 11 255 8.0 14.5 0.00 0.00 0.00 74 1005.2
20260510170604 11 257 9.7 14.5 0.00 0.00 0.00 75 1005.4
20260510170504 11 257 8.0 16.1 0.00 0.00 0.00 77 1005.3
20260510170425 11 258 9.7 16.1 0.00 0.00 0.00 75 1005.3
20260510170304 11 260 9.7 16.1 0.00 0.00 0.00 74 1005.0
20260510170204 11 258 9.7 16.1 0.00 0.00 0.00 72 1005.3
20260510170125 11 259 9.7 16.1 0.00 0.00 0.00 72 1005.3
20260510170025 11 260 9.7 16.1 0.00 0.00 0.00 74 1005.2
20260510165904 11 260 9.7 16.1 0.00 0.00 0.00 77 1005.2
20260510165825 11 260 9.7 16.1 0.00 0.00 0.00 76 1005.2
20260510165704 11 258 9.7 16.1 0.00 0.00 0.00 73 1005.5
20260510165604 11 256 9.7 16.1 0.00 0.00 0.00 74 1005.5
20260510165504 11 255 9.7 17.7 0.00 0.00 0.00 75 1005.5
20260510165404 11 253 9.7 20.9 0.00 0.00 0.00 76 1005.4
20260510165306 11 251 11.3 20.9 0.00 0.00 0.00 77 1005.3
20260510165204 11 252 11.3 20.9 0.00 0.00 0.00 77 1005.4
20260510165104 11 250 11.3 20.9 0.00 0.00 0.00 77 1005.5
20260510165005 11 250 11.3 20.9 0.00 0.00 0.00 78 1005.4
20260510164904 11 248 11.3 20.9 0.00 0.00 0.00 76 1005.5
20260510164804 11 246 11.3 20.9 0.00 0.00 0.00 78 1005.5
20260510164704 11 247 11.3 20.9 0.00 0.00 0.00 77 1005.4
20260510164604 10 247 11.3 20.9 0.00 0.00 0.00 78 1005.7
20260510164504 10 248 11.3 20.9 0.00 0.00 0.00 78 1005.5
20260510164404 10 250 11.3 20.9 0.00 0.00 0.00 79 1005.5
20260510164304 10 251 11.3 20.9 0.00 0.00 0.00 79 1005.6
20260510164204 10 253 11.3 20.9 0.00 0.00 0.00 80 1005.6
20260510164125 10 256 11.3 20.9 0.00 0.00 0.00 80 1005.6
20260510164004 10 258 11.3 20.9 0.00 0.00 0.00 80 1005.6
20260510163925 10 257 11.3 20.9 0.00 0.00 0.00 79 1005.6
20260510163804 10 261 11.3 20.9 0.00 0.00 0.00 80 1005.5
20260510163704 10 263 11.3 20.9 0.00 0.00 0.00 79 1005.6
20260510163604 10 264 11.3 20.9 0.00 0.00 0.00 79 1005.6
20260510163504 10 265 11.3 20.9 0.00 0.00 0.00 78 1005.8
20260510163425 10 267 11.3 20.9 0.00 0.00 0.00 79 1005.8
20260510163304 11 270 11.3 20.9 0.00 0.00 0.00 78 1005.8
20260510163204 11 271 11.3 17.7 0.00 0.00 0.00 78 1005.8
20260510163104 10 269 11.3 22.5 0.00 0.00 0.00 78 1005.7
20260510163004 10 269 11.3 22.5 0.00 0.00 0.00 77 1005.7
20260510162904 10 271 11.3 22.5 0.00 0.00 0.00 77 1005.9
20260510162804 10 270 12.9 22.5 0.00 0.00 0.00 76 1005.8
20260510162725 10 270 12.9 22.5 0.00 0.00 0.00 76 1005.8
20260510162604 10 269 12.9 22.5 0.00 0.00 0.00 76 1006.0
20260510162504 10 271 12.9 22.5 0.00 0.00 0.00 76 1005.8
20260510162404 10 268 12.9 22.5 0.00 0.00 0.00 76 1006.1
20260510162306 10 265 12.9 22.5 0.00 0.00 0.00 75 1005.9
20260510162204 10 265 12.9 22.5 0.00 0.00 0.00 76 1005.8
20260510162104 11 263 14.5 22.5 0.00 0.00 0.00 76 1005.8
20260510162004 11 261 14.5 22.5 0.00 0.00 0.00 74 1006.0
20260510161904 11 259 14.5 22.5 0.00 0.00 0.00 74 1005.8
20260510161804 11 260 12.9 22.5 0.00 0.00 0.00 74 1006.0
20260510161704 11 259 12.9 22.5 0.00 0.00 0.00 74 1006.0
20260510161604 11 260 12.9 22.5 0.00 0.00 0.00 73 1006.1
20260510161504 11 258 11.3 22.5 0.00 0.00 0.00 73 1005.9
20260510161404 11 258 11.3 22.5 0.00 0.00 0.00 73 1006.1
20260510161325 11 260 11.3 22.5 0.00 0.00 0.00 72 1006.1
20260510161225 11 262 11.3 22.5 0.00 0.00 0.00 72 1005.9
20260510161104 11 265 11.3 20.9 0.00 0.00 0.00 71 1006.0
20260510161004 11 266 11.3 20.9 0.00 0.00 0.00 69 1006.2
20260510160925 11 267 11.3 17.7 0.00 0.00 0.00 72 1006.2
20260510160825 10 269 11.3 17.7 0.00 0.00 0.00 72 1006.0
20260510160725 10 269 11.3 17.7 0.00 0.00 0.00 72 1006.0
20260510160604 10 268 11.3 17.7 0.00 0.00 0.00 73 1006.2
20260510160504 10 271 11.3 17.7 0.00 0.00 0.00 72 1006.0
20260510160404 10 271 11.3 17.7 0.00 0.00 0.00 71 1006.2
20260510160304 10 268 9.7 17.7 0.00 0.00 0.00 71 1006.2
20260510160204 10 269 9.7 17.7 0.00 0.00 0.00 70 1006.3
20260510160104 10 268 9.7 17.7 0.00 0.00 0.00 71 1006.5
20260510160004 10 270 9.7 17.7 0.00 0.00 0.00 70 1006.2
20260510155904 10 268 9.7 17.7 0.00 0.00 0.00 69 1006.2
20260510155825 10 268 9.7 25.7 0.00 0.00 0.00 68 1006.2
20260510155725 10 263 9.7 25.7 0.00 0.00 0.00 69 1006.3
20260510155604 10 262 11.3 25.7 0.00 0.00 0.00 67 1006.4
20260510155504 10 260 11.3 25.7 0.00 0.00 0.00 71 1006.3
20260510155404 10 260 11.3 25.7 0.00 0.00 0.00 72 1006.5
20260510155306 10 263 11.3 25.7 0.00 0.00 0.00 71 1006.6
20260510155225 10 262 11.3 25.7 0.00 0.00 0.00 70 1006.6
20260510155104 10 263 11.3 25.7 0.00 0.00 0.00 71 1006.7
20260510155004 10 262 11.3 25.7 0.00 0.00 0.00 72 1006.6
20260510154904 10 263 11.3 25.7 0.00 0.00 0.00 72 1006.9
20260510154804 10 264 11.3 25.7 0.00 0.00 0.00 73 1006.6
20260510154704 10 268 11.3 20.9 0.00 0.00 0.00 71 1006.8
20260510154604 10 272 9.7 16.1 0.00 0.00 0.00 73 1006.6
20260510154525 10 274 9.7 16.1 0.00 0.00 0.00 73 1006.6
20260510154404 10 273 11.3 17.7 0.00 0.00 0.00 72 1006.8
20260510154325 10 272 11.3 17.7 0.00 0.00 0.00 72 1006.8
20260510154204 10 274 11.3 17.7 0.00 0.00 0.00 73 1006.9
20260510154104 10 272 11.3 17.7 0.00 0.00 0.00 72 1006.7
20260510154004 10 275 11.3 17.7 0.00 0.00 0.00 70 1006.7
20260510153904 10 277 11.3 17.7 0.00 0.00 0.00 70 1006.8
20260510153804 10 276 11.3 17.7 0.00 0.00 0.00 70 1007.0
20260510153704 10 276 11.3 17.7 0.00 0.00 0.00 72 1006.8
20260510153625 10 276 11.3 17.7 0.00 0.00 0.00 72 1006.8
20260510153504 10 277 11.3 17.7 0.00 0.00 0.00 72 1007.0
20260510153404 10 277 11.3 17.7 0.00 0.00 0.00 72 1006.9
20260510153325 10 277 11.3 22.5 0.00 0.00 0.00 71 1006.9
20260510153204 10 277 11.3 22.5 0.00 0.00 0.00 73 1007.0
20260510153104 10 279 11.3 22.5 0.00 0.00 0.00 72 1007.0
20260510153004 10 276 11.3 22.5 0.00 0.00 0.00 72 1006.7
20260510152904 10 273 11.3 22.5 0.00 0.00 0.00 72 1006.8
20260510152804 10 276 11.3 22.5 0.00 0.00 0.00 71 1006.9
20260510152704 10 275 11.3 22.5 0.00 0.00 0.00 70 1006.8
20260510152604 10 276 11.3 22.5 0.00 0.00 0.00 71 1006.9
20260510152504 10 274 11.3 22.5 0.00 0.00 0.00 72 1007.1
20260510152404 10 275 11.3 22.5 0.00 0.00 0.00 73 1006.9
20260510152307 10 275 11.3 22.5 0.00 0.00 0.00 72 1006.8
20260510152204 10 271 9.7 22.5 0.00 0.00 0.00 72 1006.9
20260510152125 10 271 9.7 22.5 0.00 0.00 0.00 72 1006.9
20260510152004 10 273 9.7 22.5 0.00 0.00 0.00 71 1006.8
20260510151904 10 275 9.7 20.9 0.00 0.00 0.00 71 1006.8
20260510151804 10 275 9.7 20.9 0.00 0.00 0.00 71 1007.1
20260510151704 10 277 9.7 20.9 0.00 0.00 0.00 71 1007.2
20260510151604 10 275 9.7 20.9 0.00 0.00 0.00 70 1007.2
20260510151504 10 275 9.7 20.9 0.00 0.00 0.00 72 1007.1
20260510151404 10 276 9.7 20.9 0.00 0.00 0.00 72 1007.1
20260510151304 10 279 9.7 20.9 0.00 0.00 0.00 71 1007.1
20260510151204 10 282 9.7 20.9 0.00 0.00 0.00 69 1007.2
20260510151104 10 285 9.7 20.9 0.00 0.00 0.00 69 1007.3
20260510151025 10 284 9.7 20.9 0.00 0.00 0.00 70 1007.3
20260510150925 11 284 9.7 20.9 0.00 0.00 0.00 70 1007.3
20260510150804 11 282 9.7 20.9 0.00 0.00 0.00 69 1007.4
20260510150704 11 283 9.7 20.9 0.00 0.00 0.00 71 1007.3
20260510150604 11 286 9.7 20.9 0.00 0.00 0.00 71 1007.2
20260510150504 11 286 9.7 20.9 0.00 0.00 0.00 73 1007.4
20260510150404 11 287 11.3 20.9 0.00 0.00 0.00 72 1007.4
20260510150304 11 287 11.3 20.9 0.00 0.00 0.00 72 1007.4
20260510150204 11 284 9.7 20.9 0.00 0.00 0.00 73 1007.4
20260510150104 11 284 11.3 20.9 0.00 0.00 0.00 72 1007.5
20260510150025 11 283 11.3 20.9 0.00 0.00 0.00 72 1007.5
20260510145925 11 284 9.7 17.7 0.00 0.00 0.00 71 1007.4
20260510145804 11 285 9.7 17.7 0.00 0.00 0.00 67 1007.6
20260510145725 11 285 9.7 17.7 0.00 0.00 0.00 66 1007.6
20260510145605 11 283 9.7 20.9 0.00 0.00 0.00 64 1007.5
20260510145504 11 281 9.7 20.9 0.00 0.00 0.00 65 1007.7
20260510145404 11 283 9.7 20.9 0.00 0.00 0.00 68 1007.6
20260510145306 11 284 9.7 20.9 0.00 0.00 0.00 70 1007.6
20260510145204 11 284 9.7 20.9 0.00 0.00 0.00 69 1007.6
20260510145104 11 284 9.7 20.9 0.00 0.00 0.00 66 1007.7
20260510145004 11 282 11.3 20.9 0.00 0.00 0.00 66 1007.7
20260510144904 11 284 9.7 20.9 0.00 0.00 0.00 65 1007.6
20260510144804 11 284 9.7 20.9 0.00 0.00 0.00 69 1007.7
20260510144704 11 283 9.7 20.9 0.00 0.00 0.00 70 1007.8
20260510144625 11 281 9.7 20.9 0.00 0.00 0.00 71 1007.8
20260510144504 10 280 9.7 20.9 0.00 0.00 0.00 70 1007.8
20260510144404 10 279 9.7 20.9 0.00 0.00 0.00 70 1007.8
20260510144304 10 280 9.7 20.9 0.00 0.00 0.00 68 1007.7
20260510144204 11 283 9.7 20.9 0.00 0.00 0.00 69 1007.7
20260510144104 11 283 9.7 20.9 0.00 0.00 0.00 68 1007.8
20260510144004 11 283 9.7 20.9 0.00 0.00 0.00 66 1007.8
20260510143904 11 284 9.7 20.9 0.00 0.00 0.00 67 1007.9
20260510143804 11 285 9.7 20.9 0.00 0.00 0.00 67 1007.6
20260510143704 11 287 11.3 20.9 0.00 0.00 0.00 67 1007.8
20260510143604 10 289 11.3 20.9 0.00 0.00 0.00 66 1007.9
20260510143504 10 291 11.3 20.9 0.00 0.00 0.00 64 1008.0
20260510143404 11 292 9.7 20.9 0.00 0.00 0.00 63 1007.9
20260510143304 11 291 9.7 20.9 0.00 0.00 0.00 62 1008.0
20260510143204 11 290 9.7 20.9 0.00 0.00 0.00 64 1007.9
20260510143104 11 288 9.7 20.9 0.00 0.00 0.00 65 1008.1
20260510143004 11 288 9.7 20.9 0.00 0.00 0.00 64 1008.0
20260510142904 11 285 9.7 20.9 0.00 0.00 0.00 65 1007.9
20260510142804 11 284 9.7 17.7 0.00 0.00 0.00 63 1007.9
20260510142704 11 280 9.7 17.7 0.00 0.00 0.00 60 1008.2
20260510142604 11 281 9.7 17.7 0.00 0.00 0.00 58 1007.9
20260510142504 11 284 9.7 17.7 0.00 0.00 0.00 59 1008.1
20260510142404 11 284 9.7 17.7 0.00 0.00 0.00 57 1008.3
20260510142306 11 284 9.7 17.7 0.00 0.00 0.00 57 1008.1
20260510142226 11 284 9.7 17.7 0.00 0.00 0.00 56 1008.1
20260510142104 11 286 9.7 17.7 0.00 0.00 0.00 57 1008.1
20260510142004 11 286 9.7 16.1 0.00 0.00 0.00 59 1008.0
20260510141925 11 288 9.7 16.1 0.00 0.00 0.00 58 1008.0
20260510141804 11 290 9.7 16.1 0.00 0.00 0.00 58 1008.2
20260510141704 11 290 9.7 16.1 0.00 0.00 0.00 59 1008.1
20260510141625 11 287 9.7 17.7 0.00 0.00 0.00 57 1008.1
20260510141504 11 287 9.7 17.7 0.00 0.00 0.00 57 1008.0
20260510141404 11 283 9.7 17.7 0.00 0.00 0.00 56 1008.1
20260510141304 11 283 9.7 17.7 0.00 0.00 0.00 56 1008.2
20260510141204 11 284 9.7 17.7 0.00 0.00 0.00 56 1008.2
20260510141104 11 284 9.7 17.7 0.00 0.00 0.00 56 1008.2
20260510141004 11 286 9.7 17.7 0.00 0.00 0.00 56 1008.1
20260510140904 11 285 9.7 17.7 0.00 0.00 0.00 55 1008.0
20260510140804 11 287 9.7 17.7 0.00 0.00 0.00 54 1008.1
20260510140704 11 289 9.7 17.7 0.00 0.00 0.00 54 1008.1
20260510140604 11 290 9.7 17.7 0.00 0.00 0.00 50 1008.1
20260510140525 11 290 9.7 17.7 0.00 0.00 0.00 51 1008.1
20260510140404 11 293 9.7 17.7 0.00 0.00 0.00 54 1008.4
20260510140304 11 296 9.7 17.7 0.00 0.00 0.00 52 1008.1
20260510140204 11 295 9.7 17.7 0.00 0.00 0.00 51 1008.0
20260510140104 11 296 9.7 17.7 0.00 0.00 0.00 50 1008.2
20260510140005 11 296 9.7 17.7 0.00 0.00 0.00 50 1008.1
20260510135904 11 297 9.7 16.1 0.00 0.00 0.00 51 1008.2
20260510135804 11 292 9.7 17.7 0.00 0.00 0.00 53 1008.1
20260510135704 11 290 9.7 17.7 0.00 0.00 0.00 54 1007.9
20260510135604 11 288 9.7 17.7 0.00 0.00 0.00 58 1008.2
20260510135504 11 289 9.7 17.7 0.00 0.00 0.00 55 1008.4
20260510135404 11 289 9.7 17.7 0.00 0.00 0.00 54 1008.4
20260510135306 11 288 9.7 17.7 0.00 0.00 0.00 52 1008.2
20260510135204 11 286 9.7 17.7 0.00 0.00 0.00 49 1008.3
20260510135104 11 284 9.7 17.7 0.00 0.00 0.00 50 1008.4
20260510135004 11 284 9.7 17.7 0.00 0.00 0.00 51 1008.2
20260510134904 11 282 8.0 17.7 0.00 0.00 0.00 51 1008.3
20260510134804 11 284 8.0 17.7 0.00 0.00 0.00 51 1008.3
20260510134704 11 284 8.0 17.7 0.00 0.00 0.00 49 1008.4
20260510134604 11 285 8.0 17.7 0.00 0.00 0.00 50 1008.3
20260510134504 11 285 8.0 17.7 0.00 0.00 0.00 49 1008.2
20260510134404 11 282 8.0 16.1 0.00 0.00 0.00 52 1008.7
20260510134325 11 282 8.0 16.1 0.00 0.00 0.00 50 1008.7
20260510134204 11 280 8.0 16.1 0.00 0.00 0.00 51 1008.3
20260510134104 11 281 8.0 16.1 0.00 0.00 0.00 53 1008.5
20260510134004 11 283 8.0 16.1 0.00 0.00 0.00 53 1008.7
20260510133904 11 283 8.0 16.1 0.00 0.00 0.00 52 1008.7
20260510133804 11 286 8.0 16.1 0.00 0.00 0.00 51 1008.6
20260510133704 11 284 8.0 16.1 0.00 0.00 0.00 52 1008.5
20260510133604 11 284 8.0 16.1 0.00 0.00 0.00 52 1008.4
20260510133504 11 281 8.0 14.5 0.00 0.00 0.00 55 1008.7
20260510133404 11 285 8.0 14.5 0.00 0.00 0.00 52 1008.6
20260510133304 11 285 8.0 14.5 0.00 0.00 0.00 54 1008.5
20260510133204 11 286 8.0 16.1 0.00 0.00 0.00 54 1008.6
20260510133104 11 285 8.0 16.1 0.00 0.00 0.00 53 1008.6
20260510133025 11 285 8.0 16.1 0.00 0.00 0.00 52 1008.6
20260510132904 11 281 8.0 16.1 0.00 0.00 0.00 52 1008.7
20260510132804 11 283 8.0 16.1 0.00 0.00 0.00 53 1008.7
20260510132704 11 283 8.0 16.1 0.00 0.00 0.00 52 1008.6
20260510132604 11 283 8.0 16.1 0.00 0.00 0.00 52 1008.6
20260510132525 11 287 8.0 16.1 0.00 0.00 0.00 54 1008.6
20260510132404 11 285 8.0 16.1 0.00 0.00 0.00 55 1008.8
20260510132306 11 287 6.4 16.1 0.00 0.00 0.00 53 1008.6
20260510132225 11 290 6.4 16.1 0.00 0.00 0.00 55 1008.6
20260510132104 11 297 6.4 16.1 0.00 0.00 0.00 53 1008.7
20260510132004 11 297 6.4 14.5 0.00 0.00 0.00 53 1008.8
20260510131904 11 298 6.4 14.5 0.00 0.00 0.00 52 1008.7
20260510131804 11 297 6.4 14.5 0.00 0.00 0.00 53 1008.5
20260510131704 11 305 6.4 14.5 0.00 0.00 0.00 54 1008.7
20260510131604 11 313 6.4 14.5 0.00 0.00 0.00 52 1008.8
20260510131525 11 310 4.8 14.5 0.00 0.00 0.00 52 1008.8
20260510131404 11 313 4.8 14.5 0.00 0.00 0.00 52 1008.9
20260510131304 11 312 4.8 14.5 0.00 0.00 0.00 52 1008.8
20260510131204 11 299 4.8 14.5 0.00 0.00 0.00 55 1009.0
20260510131104 11 306 4.8 14.5 0.00 0.00 0.00 53 1008.9
20260510131004 12 319 4.8 14.5 0.00 0.00 0.00 51 1008.8
20260510130904 12 330 4.8 14.5 0.00 0.00 0.00 52 1008.9
20260510130804 12 327 4.8 14.5 0.00 0.00 0.00 51 1009.0
20260510130704 12 331 4.8 12.9 0.00 0.00 0.00 53 1008.9
20260510130625 12 339 4.8 12.9 0.00 0.00 0.00 52 1008.9
20260510130504 12 351 4.8 12.9 0.00 0.00 0.00 51 1009.2
20260510130404 12 356 4.8 12.9 0.00 0.00 0.00 52 1008.8
20260510130325 12 355 4.8 12.9 0.00 0.00 0.00 52 1008.8
20260510130204 12 8 3.2 12.9 0.00 0.00 0.00 51 1009.0
20260510130104 12 359 3.2 12.9 0.00 0.00 0.00 52 1009.0
20260510130004 12 354 4.8 12.9 0.00 0.00 0.00 52 1008.8
20260510125925 12 348 3.2 11.3 0.00 0.00 0.00 52 1008.8
20260510125804 11 359 3.2 11.3 0.00 0.00 0.00 53 1009.0
20260510125704 11 346 3.2 11.3 0.00 0.00 0.00 53 1009.1
20260510125604 11 339 3.2 11.3 0.00 0.00 0.00 54 1008.8
20260510125504 11 326 3.2 11.3 0.00 0.00 0.00 54 1008.9
20260510125404 11 317 4.8 11.3 0.00 0.00 0.00 52 1008.9
20260510125306 11 320 4.8 12.9 0.00 0.00 0.00 56 1009.1
20260510125204 12 325 4.8 14.5 0.00 0.00 0.00 53 1008.9
20260510125125 12 333 4.8 14.5 0.00 0.00 0.00 53 1008.9
20260510125025 12 335 4.8 14.5 0.00 0.00 0.00 53 1008.9
20260510124904 11 345 4.8 14.5 0.00 0.00 0.00 54 1009.0
20260510124804 11 346 4.8 14.5 0.00 0.00 0.00 55 1008.9
20260510124704 11 353 4.8 14.5 0.00 0.00 0.00 55 1009.2
20260510124604 11 353 4.8 14.5 0.00 0.00 0.00 54 1009.0
20260510124504 11 5 4.8 14.5 0.00 0.00 0.00 53 1008.9
20260510124404 11 10 4.8 14.5 0.00 0.00 0.00 56 1009.0
20260510124325 11 13 4.8 14.5 0.00 0.00 0.00 55 1009.0
20260510124204 12 11 4.8 14.5 0.00 0.00 0.00 55 1009.2
20260510124104 12 9 4.8 14.5 0.00 0.00 0.00 54 1009.1
20260510124025 12 14 4.8 12.9 0.00 0.00 0.00 57 1009.1
20260510123904 11 14 4.8 12.9 0.00 0.00 0.00 56 1009.3
20260510123825 11 10 3.2 12.9 0.00 0.00 0.00 54 1009.3
20260510123704 11 1 3.2 12.9 0.00 0.00 0.00 53 1009.2
20260510123604 12 7 3.2 12.9 0.00 0.00 0.00 54 1009.1
20260510123504 12 7 3.2 12.9 0.00 0.00 0.00 52 1009.2
20260510123425 12 11 3.2 12.9 0.00 0.00 0.00 51 1009.2
20260510123304 12 12 3.2 9.7 0.00 0.00 0.00 54 1009.3
20260510123204 12 12 3.2 9.7 0.00 0.00 0.00 54 1009.0
20260510123104 12 359 3.2 9.7 0.00 0.00 0.00 53 1009.3
20260510123004 12 357 3.2 9.7 0.00 0.00 0.00 53 1009.2
20260510122904 11 346 3.2 9.7 0.00 0.00 0.00 53 1009.2
20260510122804 11 5 3.2 9.7 0.00 0.00 0.00 52 1009.2
20260510122704 11 23 3.2 9.7 0.00 0.00 0.00 53 1009.3
20260510122604 11 23 1.6 6.4 0.00 0.00 0.00 52 1009.4
20260510122504 11 23 3.2 9.7 0.00 0.00 0.00 51 1009.5
20260510122425 12 32 1.6 9.7 0.00 0.00 0.00 53 1009.5
20260510122306 12 46 3.2 9.7 0.00 0.00 0.00 50 1009.3
20260510122204 12 56 3.2 9.7 0.00 0.00 0.00 53 1009.5
20260510122104 12 63 3.2 9.7 0.00 0.00 0.00 51 1009.5
20260510122004 12 57 3.2 9.7 0.00 0.00 0.00 52 1009.4
20260510121904 12 61 3.2 9.7 0.00 0.00 0.00 53 1009.4
20260510121804 11 62 3.2 9.7 0.00 0.00 0.00 53 1009.4
20260510121704 11 59 3.2 9.7 0.00 0.00 0.00 54 1009.4
20260510121604 11 56 3.2 9.7 0.00 0.00 0.00 55 1009.5
20260510121504 11 50 3.2 9.7 0.00 0.00 0.00 59 1009.4
20260510121425 11 41 3.2 9.7 0.00 0.00 0.00 59 1009.4
20260510121304 11 24 3.2 6.4 0.00 0.00 0.00 55 1009.4
20260510121204 11 6 3.2 6.4 0.00 0.00 0.00 53 1009.6
20260510121104 11 338 3.2 9.7 0.00 0.00 0.00 50 1009.7
20260510121004 11 319 3.2 9.7 0.00 0.00 0.00 54 1009.5
20260510120904 11 304 3.2 9.7 0.00 0.00 0.00 52 1009.6
20260510120804 11 296 3.2 9.7 0.00 0.00 0.00 50 1009.9
20260510120704 11 288 3.2 9.7 0.00 0.00 0.00 53 1009.8
20260510120604 11 288 3.2 9.7 0.00 0.00 0.00 53 1009.8
20260510120504 11 293 3.2 9.7 0.00 0.00 0.00 54 1009.9
20260510120425 11 298 3.2 9.7 0.00 0.00 0.00 54 1009.9
20260510120304 11 293 3.2 9.7 0.00 0.00 0.00 56 1009.7
20260510120204 11 294 3.2 9.7 0.00 0.00 0.00 53 1009.7
20260510120104 11 298 4.8 9.7 0.00 0.00 0.00 52 1009.5
20260510120004 11 298 4.8 9.7 0.00 0.00 0.00 52 1009.9
20260510115904 11 289 3.2 11.3 0.00 0.00 0.00 52 1009.5
20260510115825 11 284 3.2 11.3 0.00 0.00 0.00 52 1009.5
20260510115725 11 280 3.2 11.3 0.00 0.00 0.00 51 1009.6
20260510115604 11 277 3.2 11.3 0.00 0.00 0.00 53 1009.7
20260510115504 11 276 3.2 11.3 0.00 0.00 0.00 54 1009.6
20260510115404 11 273 3.2 11.3 0.00 0.00 0.00 53 1009.7
20260510115306 11 273 4.8 11.3 0.00 0.00 0.00 52 1009.6
20260510115204 11 275 3.2 11.3 0.00 0.00 0.00 56 1009.8
20260510115104 11 281 3.2 11.3 0.00 0.00 0.00 53 1009.9
20260510115004 11 291 3.2 11.3 0.00 0.00 0.00 59 1009.9
20260510114904 11 308 4.8 11.3 0.00 0.00 0.00 57 1010.0
20260510114804 11 322 4.8 11.3 0.00 0.00 0.00 54 1010.0
20260510114704 11 334 3.2 11.3 0.00 0.00 0.00 52 1010.0
20260510114604 11 345 3.2 11.3 0.00 0.00 0.00 52 1010.1
20260510114525 11 356 3.2 11.3 0.00 0.00 0.00 54 1010.1
20260510114404 11 14 3.2 11.3 0.00 0.00 0.00 55 1009.9
20260510114304 11 23 3.2 11.3 0.00 0.00 0.00 54 1009.9
20260510114204 11 25 3.2 11.3 0.00 0.00 0.00 55 1010.1
20260510114104 11 27 3.2 11.3 0.00 0.00 0.00 56 1010.1
20260510114004 11 32 3.2 11.3 0.00 0.00 0.00 54 1009.8
20260510113904 11 38 4.8 11.3 0.00 0.00 0.00 56 1010.0
20260510113804 11 42 4.8 11.3 0.00 0.00 0.00 54 1010.1
20260510113725 11 47 4.8 11.3 0.00 0.00 0.00 53 1010.1
20260510113604 11 58 4.8 11.3 0.00 0.00 0.00 55 1010.2
20260510113504 11 61 4.8 11.3 0.00 0.00 0.00 54 1010.2
20260510113404 11 67 3.2 6.4 0.00 0.00 0.00 57 1009.9
20260510113304 11 67 3.2 6.4 0.00 0.00 0.00 56 1010.1
20260510113204 11 69 3.2 6.4 0.00 0.00 0.00 55 1010.0
20260510113104 11 69 3.2 6.4 0.00 0.00 0.00 59 1010.0
20260510113004 11 63 3.2 6.4 0.00 0.00 0.00 60 1010.0
20260510112904 11 63 3.2 6.4 0.00 0.00 0.00 58 1010.1
20260510112804 11 64 3.2 6.4 0.00 0.00 0.00 56 1010.1
20260510112704 11 65 3.2 9.7 0.00 0.00 0.00 59 1010.1
20260510112604 11 60 3.2 9.7 0.00 0.00 0.00 60 1010.3
20260510112504 11 63 3.2 9.7 0.00 0.00 0.00 58 1010.3
20260510112404 11 66 4.8 9.7 0.00 0.00 0.00 59 1010.3
20260510112306 11 59 4.8 9.7 0.00 0.00 0.00 60 1010.1
20260510112204 11 54 4.8 9.7 0.00 0.00 0.00 58 1010.0
20260510112104 11 54 4.8 9.7 0.00 0.00 0.00 58 1010.3
20260510112004 11 59 4.8 9.7 0.00 0.00 0.00 63 1010.3
20260510111904 11 60 4.8 9.7 0.00 0.00 0.00 59 1010.0
20260510111804 11 58 4.8 9.7 0.00 0.00 0.00 58 1010.2
20260510111725 11 55 4.8 9.7 0.00 0.00 0.00 57 1010.2
20260510111625 11 54 4.8 9.7 0.00 0.00 0.00 61 1010.4
20260510111504 11 51 3.2 9.7 0.00 0.00 0.00 58 1010.2
20260510111404 11 52 3.2 9.7 0.00 0.00 0.00 59 1010.2
20260510111304 11 58 3.2 9.7 0.00 0.00 0.00 58 1010.4
20260510111204 11 62 3.2 9.7 0.00 0.00 0.00 62 1010.5
20260510111104 11 63 3.2 9.7 0.00 0.00 0.00 61 1010.4
20260510111004 11 56 3.2 9.7 0.00 0.00 0.00 55 1010.2
20260510110904 11 47 3.2 9.7 0.00 0.00 0.00 58 1010.2
20260510110825 11 45 3.2 11.3 0.00 0.00 0.00 63 1010.2
20260510110704 11 39 3.2 11.3 0.00 0.00 0.00 56 1010.3
20260510110604 11 33 3.2 11.3 0.00 0.00 0.00 58 1010.3
20260510110504 11 33 3.2 11.3 0.00 0.00 0.00 62 1010.2
20260510110404 11 29 3.2 11.3 0.00 0.00 0.00 58 1010.4
20260510110304 11 26 3.2 11.3 0.00 0.00 0.00 56 1010.3
20260510110204 11 27 3.2 11.3 0.00 0.00 0.00 56 1010.4
20260510110104 11 25 3.2 11.3 0.00 0.00 0.00 52 1010.6
20260510110004 11 23 3.2 11.3 0.00 0.00 0.00 51 1010.5
20260510105904 11 26 3.2 11.3 0.00 0.00 0.00 54 1010.6
20260510105804 11 30 3.2 11.3 0.00 0.00 0.00 52 1010.4
20260510105725 11 33 3.2 11.3 0.00 0.00 0.00 53 1010.4
20260510105604 11 32 3.2 9.7 0.00 0.00 0.00 54 1010.4
20260510105504 11 35 4.8 9.7 0.00 0.00 0.00 56 1010.5
20260510105404 11 37 3.2 9.7 0.00 0.00 0.00 54 1010.6
20260510105306 11 44 4.8 9.7 0.00 0.00 0.00 58 1010.6
20260510105204 11 41 4.8 9.7 0.00 0.00 0.00 58 1010.5
20260510105125 11 42 4.8 9.7 0.00 0.00 0.00 59 1010.5
20260510105004 10 42 4.8 9.7 0.00 0.00 0.00 60 1010.5
20260510104925 10 43 4.8 9.7 0.00 0.00 0.00 62 1010.5
20260510104804 10 39 4.8 9.7 0.00 0.00 0.00 61 1010.6
20260510104704 10 37 4.8 9.7 0.00 0.00 0.00 53 1010.5
20260510104604 10 40 3.2 9.7 0.00 0.00 0.00 62 1010.6
20260510104504 10 38 3.2 9.7 0.00 0.00 0.00 64 1010.7
20260510104404 10 33 3.2 9.7 0.00 0.00 0.00 63 1010.5
20260510104304 10 27 3.2 11.3 0.00 0.00 0.00 62 1010.6
20260510104204 10 22 3.2 12.9 0.00 0.00 0.00 57 1010.7
20260510104104 10 21 3.2 12.9 0.00 0.00 0.00 56 1010.7
20260510104004 10 23 3.2 12.9 0.00 0.00 0.00 59 1010.6
20260510103904 10 23 3.2 12.9 0.00 0.00 0.00 68 1010.8
20260510103804 10 21 3.2 12.9 0.00 0.00 0.00 71 1010.8
20260510103704 10 23 3.2 12.9 0.00 0.00 0.00 71 1010.5
20260510103604 10 23 3.2 12.9 0.00 0.00 0.00 71 1010.5
20260510103504 10 22 3.2 12.9 0.00 0.00 0.00 70 1010.9
20260510103404 10 20 3.2 12.9 0.00 0.00 0.00 70 1010.8
20260510103304 10 18 3.2 12.9 0.00 0.00 0.00 71 1010.6
20260510103204 10 18 3.2 12.9 0.00 0.00 0.00 72 1010.8
20260510103104 11 20 3.2 12.9 0.00 0.00 0.00 70 1010.9
20260510103004 11 23 3.2 9.7 0.00 0.00 0.00 67 1010.8
20260510102904 11 26 3.2 9.7 0.00 0.00 0.00 65 1010.7
20260510102804 10 27 3.2 9.7 0.00 0.00 0.00 66 1010.7
20260510102704 10 25 3.2 9.7 0.00 0.00 0.00 62 1010.8
20260510102604 10 26 3.2 9.7 0.00 0.00 0.00 62 1010.8
20260510102504 10 33 3.2 9.7 0.00 0.00 0.00 59 1010.9
20260510102404 10 39 3.2 9.7 0.00 0.00 0.00 59 1010.8
20260510102306 10 47 3.2 9.7 0.00 0.00 0.00 57 1010.9
20260510102203 10 54 3.2 9.7 0.00 0.00 0.00 61 1010.6
20260510102104 10 55 3.2 9.7 0.00 0.00 0.00 57 1010.7
20260510102004 10 57 3.2 9.7 0.00 0.00 0.00 59 1010.9
20260510101904 10 64 3.2 9.7 0.00 0.00 0.00 63 1010.8
20260510101804 10 74 3.2 9.7 0.00 0.00 0.00 62 1010.7
20260510101725 10 79 3.2 9.7 0.00 0.00 0.00 65 1010.7
20260510101604 10 79 3.2 9.7 0.00 0.00 0.00 64 1011.0
20260510101504 10 76 3.2 9.7 0.00 0.00 0.00 69 1010.8
20260510101404 10 76 3.2 11.3 0.00 0.00 0.00 64 1010.9
20260510101304 10 77 4.8 12.9 0.00 0.00 0.00 68 1010.9
20260510101204 10 76 4.8 12.9 0.00 0.00 0.00 64 1010.9
20260510101104 10 76 4.8 12.9 0.00 0.00 0.00 66 1011.0
20260510101004 10 75 4.8 12.9 0.00 0.00 0.00 64 1010.9
20260510100904 10 69 4.8 12.9 0.00 0.00 0.00 62 1011.0
20260510100804 10 69 4.8 12.9 0.00 0.00 0.00 65 1011.0
20260510100704 10 69 4.8 12.9 0.00 0.00 0.00 63 1010.9
20260510100604 10 75 4.8 12.9 0.00 0.00 0.00 69 1011.1
20260510100504 10 77 4.8 12.9 0.00 0.00 0.00 70 1010.9
20260510100404 10 76 4.8 12.9 0.00 0.00 0.00 66 1010.9
20260510100325 10 77 6.4 12.9 0.00 0.00 0.00 66 1010.9
20260510100225 10 79 4.8 12.9 0.00 0.00 0.00 68 1011.1
20260510100104 10 78 4.8 12.9 0.00 0.00 0.00 68 1011.0
20260510100004 9 79 6.4 12.9 0.00 0.00 0.00 70 1011.0
20260510095925 9 79 6.4 12.9 0.00 0.00 0.00 69 1011.0
20260510095825 9 79 8.0 14.5 0.00 0.00 0.00 68 1010.9
20260510095704 10 78 8.0 14.5 0.00 0.00 0.00 70 1011.0
20260510095604 10 77 8.0 14.5 0.00 0.00 0.00 67 1011.0
20260510095504 9 77 8.0 14.5 0.00 0.00 0.00 71 1010.8
20260510095404 9 78 6.4 14.5 0.00 0.00 0.00 71 1011.0
20260510095305 9 74 6.4 14.5 0.00 0.00 0.00 73 1010.9
20260510095204 9 73 6.4 14.5 0.00 0.00 0.00 69 1011.2
20260510095104 9 68 6.4 14.5 0.00 0.00 0.00 71 1011.1
20260510095004 10 68 6.4 14.5 0.00 0.00 0.00 70 1011.0
20260510094904 10 67 6.4 14.5 0.00 0.00 0.00 71 1011.1
20260510094804 10 69 6.4 14.5 0.00 0.00 0.00 69 1011.2
20260510094704 10 67 6.4 12.9 0.00 0.00 0.00 71 1011.1
20260510094604 10 65 6.4 12.9 0.00 0.00 0.00 71 1011.3
20260510094503 10 61 6.4 12.9 0.00 0.00 0.00 71 1011.2
20260510094404 10 58 4.8 12.9 0.00 0.00 0.00 69 1011.1
20260510094304 9 60 4.8 12.9 0.00 0.00 0.00 70 1011.0
20260510094204 9 56 4.8 14.5 0.00 0.00 0.00 70 1011.2
20260510094103 9 62 4.8 14.5 0.00 0.00 0.00 71 1011.4
20260510094004 10 65 6.4 14.5 0.00 0.00 0.00 69 1011.1
20260510093904 10 63 4.8 14.5 0.00 0.00 0.00 71 1011.3
20260510093804 10 59 4.8 14.5 0.00 0.00 0.00 73 1011.2
20260510093725 10 60 4.8 14.5 0.00 0.00 0.00 74 1011.2
20260510093625 10 58 4.8 14.5 0.00 0.00 0.00 72 1011.2
20260510093504 9 64 6.4 14.5 0.00 0.00 0.00 71 1011.4
20260510093404 9 68 6.4 14.5 0.00 0.00 0.00 72 1011.3
20260510093304 9 67 6.4 14.5 0.00 0.00 0.00 72 1011.6
20260510093204 9 71 6.4 14.5 0.00 0.00 0.00 74 1011.1
20260510093104 9 69 6.4 14.5 0.00 0.00 0.00 71 1011.3
20260510093025 9 66 6.4 12.9 0.00 0.00 0.00 73 1011.3
20260510092925 9 62 6.4 12.9 0.00 0.00 0.00 74 1011.2
20260510092825 9 63 6.4 12.9 0.00 0.00 0.00 73 1011.4
20260510092704 9 62 6.4 12.9 0.00 0.00 0.00 76 1011.4
20260510092604 9 62 4.8 12.9 0.00 0.00 0.00 78 1011.3
20260510092504 9 60 4.8 12.9 0.00 0.00 0.00 75 1011.3
20260510092404 9 56 6.4 12.9 0.00 0.00 0.00 72 1011.2
20260510092306 9 53 4.8 12.9 0.00 0.00 0.00 72 1011.4
20260510092204 9 51 4.8 12.9 0.00 0.00 0.00 75 1011.5
20260510092104 9 48 4.8 12.9 0.00 0.00 0.00 74 1011.5
20260510092004 9 52 4.8 12.9 0.00 0.00 0.00 74 1011.5
20260510091925 9 53 4.8 12.9 0.00 0.00 0.00 72 1011.5
20260510091804 9 51 4.8 12.9 0.00 0.00 0.00 74 1011.6
20260510091704 9 50 4.8 12.9 0.00 0.00 0.00 75 1011.3
20260510091625 9 47 4.8 12.9 0.00 0.00 0.00 75 1011.3
20260510091504 9 37 3.2 11.3 0.00 0.00 0.00 71 1011.5
20260510091404 9 35 3.2 12.9 0.00 0.00 0.00 74 1011.5
20260510091304 9 38 3.2 12.9 0.00 0.00 0.00 75 1011.5
20260510091204 9 36 3.2 12.9 0.00 0.00 0.00 73 1011.5
20260510091104 9 39 4.8 12.9 0.00 0.00 0.00 74 1011.4
20260510091025 9 41 4.8 12.9 0.00 0.00 0.00 73 1011.4
20260510090904 8 44 4.8 12.9 0.00 0.00 0.00 77 1011.3
20260510090804 8 43 4.8 12.9 0.00 0.00 0.00 75 1011.5
20260510090704 8 43 4.8 12.9 0.00 0.00 0.00 73 1011.6
20260510090604 8 44 4.8 12.9 0.00 0.00 0.00 74 1011.5
20260510090504 8 46 4.8 12.9 0.00 0.00 0.00 74 1011.6
20260510090403 8 46 4.8 12.9 0.00 0.00 0.00 77 1011.5
20260510090304 8 42 4.8 12.9 0.00 0.00 0.00 76 1011.5
20260510090204 8 38 4.8 12.9 0.00 0.00 0.00 78 1011.4
20260510090104 8 39 4.8 12.9 0.00 0.00 0.00 78 1011.5
20260510090025 8 40 4.8 14.5 0.00 0.00 0.00 78 1011.5
20260510085904 8 43 4.8 14.5 0.00 0.00 0.00 78 1011.5
20260510085804 8 45 6.4 14.5 0.00 0.00 0.00 77 1011.8
20260510085725 8 46 6.4 14.5 0.00 0.00 0.00 76 1011.8
20260510085604 8 48 4.8 14.5 0.00 0.00 0.00 77 1011.7
20260510085525 8 47 6.4 14.5 0.00 0.00 0.00 78 1011.7
20260510085425 8 48 6.4 14.5 0.00 0.00 0.00 78 1011.6
20260510085325 8 51 6.4 14.5 0.00 0.00 0.00 78 1011.6
20260510085204 8 58 6.4 14.5 0.00 0.00 0.00 79 1011.6
20260510085104 8 59 6.4 14.5 0.00 0.00 0.00 79 1011.6
20260510085025 8 55 6.4 14.5 0.00 0.00 0.00 79 1011.6
20260510084903 8 50 4.8 14.5 0.00 0.00 0.00 79 1011.6
20260510084804 8 52 4.8 16.1 0.00 0.00 0.00 79 1011.6
20260510084725 8 52 4.8 16.1 0.00 0.00 0.00 80 1011.6
20260510084604 8 53 6.4 16.1 0.00 0.00 0.00 79 1011.7
20260510084504 8 54 6.4 16.1 0.00 0.00 0.00 80 1011.5
20260510084424 8 54 6.4 16.1 0.00 0.00 0.00 80 1011.5
20260510084304 8 49 6.4 16.1 0.00 0.00 0.00 79 1011.8
20260510084204 8 45 6.4 16.1 0.00 0.00 0.00 78 1011.7
20260510084104 8 44 4.8 16.1 0.00 0.00 0.00 78 1011.4
20260510084004 8 45 4.8 16.1 0.00 0.00 0.00 79 1011.7
20260510083904 8 43 4.8 16.1 0.00 0.00 0.00 80 1011.4
20260510083804 8 38 4.8 16.1 0.00 0.00 0.00 81 1011.9
20260510083703 8 38 4.8 16.1 0.00 0.00 0.00 81 1011.8
20260510083604 8 42 4.8 11.3 0.00 0.00 0.00 82 1011.7
20260510083503 8 45 4.8 11.3 0.00 0.00 0.00 81 1011.7
20260510083404 8 45 4.8 11.3 0.00 0.00 0.00 81 1011.7
20260510083304 8 48 4.8 11.3 0.00 0.00 0.00 80 1011.6
20260510083203 8 48 4.8 11.3 0.00 0.00 0.00 80 1011.6
20260510083104 8 45 4.8 11.3 0.00 0.00 0.00 80 1011.7
20260510083003 8 40 4.8 11.3 0.00 0.00 0.00 80 1011.7
20260510082904 8 44 4.8 11.3 0.00 0.00 0.00 81 1011.6
20260510082804 8 40 4.8 11.3 0.00 0.00 0.00 82 1011.7
20260510082703 8 35 4.8 11.3 0.00 0.00 0.00 82 1011.6
20260510082604 8 31 4.8 9.7 0.00 0.00 0.00 83 1011.6
20260510082504 8 33 4.8 12.9 0.00 0.00 0.00 82 1011.7
20260510082404 7 40 4.8 12.9 0.00 0.00 0.00 82 1011.6
20260510082306 7 44 4.8 12.9 0.00 0.00 0.00 82 1011.7
20260510082204 7 43 6.4 12.9 0.00 0.00 0.00 82 1011.7
20260510082104 7 48 4.8 12.9 0.00 0.00 0.00 82 1011.8
20260510082003 7 53 4.8 12.9 0.00 0.00 0.00 83 1011.6
20260510081904 8 51 4.8 12.9 0.00 0.00 0.00 82 1011.8
20260510081804 8 53 4.8 12.9 0.00 0.00 0.00 82 1011.7
20260510081704 8 55 4.8 12.9 0.00 0.00 0.00 83 1011.5
20260510081603 8 58 4.8 12.9 0.00 0.00 0.00 83 1012.0
20260510081504 8 58 6.4 14.5 0.00 0.00 0.00 84 1011.6
20260510081425 8 57 6.4 14.5 0.00 0.00 0.00 84 1011.6
20260510081304 8 59 6.4 14.5 0.00 0.00 0.00 85 1011.8
20260510081204 7 62 6.4 14.5 0.00 0.00 0.00 85 1011.7
20260510081104 7 63 6.4 14.5 0.00 0.00 0.00 85 1011.4
20260510081005 7 64 6.4 14.5 0.00 0.00 0.00 85 1011.6
20260510080925 7 65 6.4 14.5 0.00 0.00 0.00 85 1011.6
20260510080804 7 67 6.4 14.5 0.00 0.00 0.00 86 1011.7
20260510080704 7 69 6.4 14.5 0.00 0.00 0.00 85 1011.6
20260510080603 7 68 6.4 14.5 0.00 0.00 0.00 85 1011.7
20260510080504 7 68 6.4 14.5 0.00 0.00 0.00 85 1011.7
20260510080403 7 69 6.4 14.5 0.00 0.00 0.00 85 1011.6
20260510080304 7 69 6.4 14.5 0.00 0.00 0.00 85 1011.7
20260510080203 7 69 6.4 14.5 0.00 0.00 0.00 85 1011.8
20260510080104 7 69 6.4 14.5 0.00 0.00 0.00 85 1011.9
20260510080004 7 68 6.4 14.5 0.00 0.00 0.00 85 1011.7
20260510075904 7 69 6.4 14.5 0.00 0.00 0.00 85 1011.8
20260510075804 7 68 6.4 14.5 0.00 0.00 0.00 86 1011.9
20260510075704 7 69 6.4 14.5 0.00 0.00 0.00 86 1011.8
20260510075604 7 68 6.4 14.5 0.00 0.00 0.00 86 1011.7
20260510075504 7 66 6.4 14.5 0.00 0.00 0.00 87 1011.9
20260510075425 7 65 6.4 14.5 0.00 0.00 0.00 87 1011.9
20260510075306 7 62 6.4 14.5 0.00 0.00 0.00 86 1011.7
20260510075203 7 63 6.4 14.5 0.00 0.00 0.00 87 1011.8
20260510075104 7 63 6.4 14.5 0.00 0.00 0.00 87 1011.7
20260510075004 7 64 6.4 14.5 0.00 0.00 0.00 86 1011.8
20260510074904 7 64 6.4 14.5 0.00 0.00 0.00 86 1011.9
20260510074825 7 66 6.4 14.5 0.00 0.00 0.00 86 1011.9
20260510074704 7 66 6.4 14.5 0.00 0.00 0.00 87 1011.9
20260510074604 7 68 6.4 12.9 0.00 0.00 0.00 87 1011.7
20260510074504 7 70 6.4 12.9 0.00 0.00 0.00 87 1011.7
20260510074425 7 69 6.4 12.9 0.00 0.00 0.00 87 1011.7
20260510074304 7 71 6.4 12.9 0.00 0.00 0.00 88 1012.0
20260510074225 7 73 6.4 12.9 0.00 0.00 0.00 88 1012.0
20260510074104 7 73 6.4 12.9 0.00 0.00 0.00 88 1011.8
20260510074025 7 72 6.4 12.9 0.00 0.00 0.00 88 1011.8
20260510073903 7 73 6.4 14.5 0.00 0.00 0.00 88 1011.7
20260510073825 7 75 6.4 14.5 0.00 0.00 0.00 88 1011.7
20260510073704 7 76 6.4 14.5 0.00 0.00 0.00 88 1011.9
20260510073604 7 77 6.4 14.5 0.00 0.00 0.00 88 1011.9
20260510073504 7 74 6.4 14.5 0.00 0.00 0.00 89 1011.9
20260510073404 6 75 8.0 14.5 0.00 0.00 0.00 89 1012.3
20260510073303 6 75 8.0 14.5 0.00 0.00 0.00 89 1012.1
20260510073204 6 75 8.0 14.5 0.00 0.00 0.00 90 1012.2
20260510073103 6 75 8.0 14.5 0.00 0.00 0.00 89 1011.8
20260510073004 6 74 8.0 14.5 0.00 0.00 0.00 89 1011.9
20260510072924 6 72 8.0 14.5 0.00 0.00 0.00 89 1011.9
20260510072804 6 72 8.0 16.1 0.00 0.00 0.00 90 1012.0
20260510072704 6 72 8.0 16.1 0.00 0.00 0.00 90 1012.2
20260510072604 6 72 8.0 16.1 0.00 0.00 0.00 91 1012.0
20260510072504 6 75 8.0 16.1 0.00 0.00 0.00 91 1011.9
20260510072404 6 76 9.7 16.1 0.00 0.00 0.00 91 1011.9
20260510072305 6 76 9.7 16.1 0.00 0.00 0.00 91 1012.1
20260510072225 6 76 9.7 16.1 0.00 0.00 0.00 91 1012.1
20260510072104 6 76 9.7 16.1 0.00 0.00 0.00 92 1012.2
20260510072003 6 78 9.7 16.1 0.00 0.00 0.00 92 1012.1
20260510071904 6 79 9.7 16.1 0.00 0.00 0.00 92 1011.9
20260510071804 6 79 9.7 16.1 0.00 0.00 0.00 92 1012.1
20260510071704 6 78 9.7 14.5 0.00 0.00 0.00 92 1012.0
20260510071604 5 78 9.7 14.5 0.00 0.00 0.00 92 1012.1
20260510071503 5 78 9.7 16.1 0.00 0.00 0.00 92 1012.1
20260510071404 5 77 9.7 16.1 0.00 0.00 0.00 92 1011.8
20260510071303 5 76 11.3 16.1 0.00 0.00 0.00 92 1011.9
20260510071204 5 76 11.3 16.1 0.00 0.00 0.00 92 1012.1
20260510071104 5 76 11.3 16.1 0.00 0.00 0.00 93 1012.2
20260510071004 5 76 11.3 16.1 0.00 0.00 0.00 93 1011.9
20260510070904 5 77 11.3 16.1 0.00 0.00 0.00 93 1012.0
20260510070824 5 75 11.3 16.1 0.00 0.00 0.00 93 1012.0
20260510070704 5 75 9.7 16.1 0.00 0.00 0.00 93 1011.8
20260510070603 5 74 9.7 16.1 0.00 0.00 0.00 93 1012.0
20260510070504 5 72 9.7 16.1 0.00 0.00 0.00 93 1011.9
20260510070404 5 71 9.7 16.1 0.00 0.00 0.00 93 1011.9
20260510070304 5 71 9.7 16.1 0.00 0.00 0.00 93 1012.0
20260510070204 5 72 8.0 16.1 0.00 0.00 0.00 93 1011.9
20260510070103 5 71 8.0 16.1 0.00 0.00 0.00 93 1012.0
20260510070004 5 70 8.0 14.5 0.00 0.00 0.00 93 1012.2
20260510065904 5 70 8.0 12.9 0.00 0.00 0.00 93 1012.2
20260510065804 5 70 8.0 12.9 0.00 0.00 0.00 93 1012.1
20260510065704 5 70 8.0 11.3 0.00 0.00 0.00 93 1012.1
20260510065604 5 68 6.4 12.9 0.00 0.00 0.00 93 1012.0
20260510065504 5 69 6.4 12.9 0.00 0.00 0.00 93 1012.1
20260510065404 5 68 6.4 12.9 0.00 0.00 0.00 93 1012.1
20260510065306 5 66 6.4 12.9 0.00 0.00 0.00 93 1012.0
20260510065203 5 65 6.4 12.9 0.00 0.00 0.00 93 1012.1
20260510065104 5 64 6.4 12.9 0.00 0.00 0.00 93 1012.1
20260510065004 5 65 6.4 12.9 0.00 0.00 0.00 93 1012.2
20260510064903 5 63 6.4 12.9 0.00 0.00 0.00 93 1012.1
20260510064804 5 65 6.4 12.9 0.00 0.00 0.00 93 1012.2
20260510064725 5 62 6.4 12.9 0.00 0.00 0.00 93 1012.2
20260510064624 5 58 6.4 12.9 0.00 0.00 0.00 93 1012.4
20260510064504 5 61 6.4 12.9 0.00 0.00 0.00 94 1012.1
20260510064404 5 63 6.4 12.9 0.00 0.00 0.00 94 1012.3
20260510064304 5 64 6.4 12.9 0.00 0.00 0.00 94 1012.3
20260510064204 4 63 6.4 14.5 0.00 0.00 0.00 94 1012.1
20260510064104 4 62 6.4 14.5 0.00 0.00 0.00 94 1012.2
20260510064003 4 62 6.4 14.5 0.00 0.00 0.00 94 1012.0
20260510063904 4 62 8.0 14.5 0.00 0.00 0.00 95 1012.2
20260510063804 4 62 8.0 14.5 0.00 0.00 0.00 95 1012.2
20260510063725 4 63 8.0 14.5 0.00 0.00 0.00 95 1012.2
20260510063604 4 68 9.7 14.5 0.00 0.00 0.00 95 1012.2
20260510063503 4 68 8.0 14.5 0.00 0.00 0.00 95 1012.2
20260510063404 4 67 8.0 14.5 0.00 0.00 0.00 96 1012.2
20260510063325 4 67 9.7 14.5 0.00 0.00 0.00 96 1012.2
20260510063204 4 67 9.7 14.5 0.00 0.00 0.00 96 1012.2
20260510063103 3 68 9.7 14.5 0.00 0.00 0.00 96 1012.1
20260510063004 3 69 9.7 14.5 0.00 0.00 0.00 97 1012.2
20260510062903 3 69 8.0 14.5 0.00 0.00 0.00 97 1012.2
20260510062803 3 71 8.0 14.5 0.00 0.00 0.00 97 1012.2
20260510062704 3 70 8.0 14.5 0.00 0.00 0.00 97 1012.1
20260510062603 3 69 6.4 12.9 0.00 0.00 0.00 98 1012.2
20260510062504 3 68 6.4 12.9 0.00 0.00 0.00 98 1012.3
20260510062403 3 69 6.4 12.9 0.00 0.00 0.00 98 1012.1
20260510062306 3 71 6.4 12.9 0.00 0.00 0.00 98 1012.2
20260510062203 3 72 6.4 12.9 0.00 0.00 0.00 99 1012.1
20260510062104 3 72 6.4 12.9 0.00 0.00 0.00 99 1012.1
20260510062025 3 71 6.4 12.9 0.00 0.00 0.00 99 1012.1
20260510061904 3 68 6.4 12.9 0.00 0.00 0.00 99 1012.2
20260510061804 3 67 6.4 12.9 0.00 0.00 0.00 99 1012.4
20260510061703 3 67 6.4 12.9 0.00 0.00 0.00 99 1012.2
20260510061604 3 69 6.4 12.9 0.00 0.00 0.00 99 1012.2
20260510061504 3 70 6.4 12.9 0.00 0.00 0.00 99 1012.5
20260510061425 3 69 6.4 12.9 0.00 0.00 0.00 99 1012.5
20260510061303 3 66 6.4 12.9 0.00 0.00 0.00 99 1012.3
20260510061204 3 65 6.4 12.9 0.00 0.00 0.00 99 1012.3
20260510061103 3 65 6.4 12.9 0.00 0.00 0.00 99 1012.4
20260510061004 3 66 6.4 12.9 0.00 0.00 0.00 99 1012.3
20260510060904 3 67 6.4 12.9 0.00 0.00 0.00 99 1012.3
20260510060824 3 68 6.4 12.9 0.00 0.00 0.00 99 1012.3
20260510060704 3 67 6.4 12.9 0.00 0.00 0.00 99 1012.3
20260510060624 3 67 6.4 11.3 0.00 0.00 0.00 99 1012.3
20260510060504 3 67 6.4 11.3 0.00 0.00 0.00 99 1012.2
20260510060403 3 69 6.4 11.3 0.00 0.00 0.00 99 1012.4
20260510060304 3 72 6.4 11.3 0.00 0.00 0.00 99 1012.5
20260510060204 3 72 6.4 11.3 0.00 0.00 0.00 99 1012.5
20260510060004 3 71 6.4 11.3 0.00 0.00 0.00 99 1012.4
20260510055903 3 74 6.4 9.7 0.00 0.00 0.00 99 1012.4
20260510055804 3 74 6.4 9.7 0.00 0.00 0.00 99 1012.5
20260510055724 3 77 6.4 9.7 0.00 0.00 0.00 99 1012.5
20260510055604 3 77 6.4 9.7 0.00 0.00 0.00 99 1012.5
20260510055504 3 77 6.4 9.7 0.00 0.00 0.00 99 1012.4
20260510055404 3 77 6.4 9.7 0.00 0.00 0.00 99 1012.7
20260510055306 3 77 6.4 9.7 0.00 0.00 0.00 99 1012.5
20260510055203 3 78 4.8 9.7 0.00 0.00 0.00 99 1012.4
20260510055104 2 78 4.8 9.7 0.00 0.00 0.00 99 1012.5
20260510055004 2 79 4.8 9.7 0.00 0.00 0.00 99 1012.3
20260510054903 2 77 4.8 9.7 0.00 0.00 0.00 99 1012.5
20260510054825 2 76 4.8 9.7 0.00 0.00 0.00 99 1012.5
20260510054703 2 77 6.4 9.7 0.00 0.00 0.00 99 1012.4
20260510054604 2 77 6.4 9.7 0.00 0.00 0.00 99 1012.6
20260510054503 2 77 6.4 9.7 0.00 0.00 0.00 99 1012.5
20260510054404 2 77 6.4 9.7 0.00 0.00 0.00 99 1012.5
20260510054325 2 77 6.4 9.7 0.00 0.00 0.00 99 1012.5
20260510054203 2 77 6.4 11.3 0.00 0.00 0.00 99 1012.7
20260510054104 2 78 6.4 11.3 0.00 0.00 0.00 99 1012.7
20260510054003 2 78 6.4 11.3 0.00 0.00 0.00 99 1012.7
20260510053925 2 78 6.4 11.3 0.00 0.00 0.00 99 1012.7
20260510053803 2 78 6.4 11.3 0.00 0.00 0.00 99 1012.5
20260510053704 2 77 6.4 11.3 0.00 0.00 0.00 99 1012.5
20260510053603 2 77 6.4 11.3 0.00 0.00 0.00 99 1012.6
20260510053504 2 77 6.4 11.3 0.00 0.00 0.00 99 1012.6
20260510053403 2 78 6.4 11.3 0.00 0.00 0.00 99 1012.7
20260510053324 2 78 6.4 11.3 0.00 0.00 0.00 99 1012.7
20260510053204 2 77 6.4 11.3 0.00 0.00 0.00 99 1012.6
20260510053104 2 77 6.4 9.7 0.00 0.00 0.00 99 1012.6
20260510053004 2 77 6.4 9.7 0.00 0.00 0.00 99 1012.7
20260510052903 2 78 6.4 9.7 0.00 0.00 0.00 99 1012.6
20260510052825 2 79 6.4 9.7 0.00 0.00 0.00 99 1012.6
20260510052704 2 81 6.4 9.7 0.00 0.00 0.00 99 1012.7
20260510052604 2 83 6.4 9.7 0.00 0.00 0.00 99 1012.7
20260510052525 2 84 6.4 9.7 0.00 0.00 0.00 99 1012.7
20260510052424 2 85 6.4 9.7 0.00 0.00 0.00 99 1012.7
20260510052306 2 87 4.8 9.7 0.00 0.00 0.00 99 1012.8
20260510052224 2 87 4.8 9.7 0.00 0.00 0.00 99 1012.8
20260510052104 2 88 4.8 11.3 0.00 0.00 0.00 99 1012.5
20260510052003 2 88 4.8 11.3 0.00 0.00 0.00 99 1012.5
20260510051903 2 87 4.8 11.3 0.00 0.00 0.00 99 1012.8
20260510051803 2 86 4.8 11.3 0.00 0.00 0.00 99 1012.7
20260510051703 2 85 4.8 11.3 0.00 0.00 0.00 99 1012.7
20260510051604 2 83 4.8 11.3 0.00 0.00 0.00 99 1012.7
20260510051503 2 82 4.8 11.3 0.00 0.00 0.00 99 1012.7
20260510051404 2 79 4.8 11.3 0.00 0.00 0.00 99 1012.6
20260510051303 2 77 4.8 11.3 0.00 0.00 0.00 99 1012.7
20260510051203 2 74 4.8 11.3 0.00 0.00 0.00 99 1012.7
20260510051104 2 72 4.8 11.3 0.00 0.00 0.00 99 1012.6
20260510051003 2 71 4.8 9.7 0.00 0.00 0.00 99 1012.7
20260510050904 2 70 4.8 9.7 0.00 0.00 0.00 99 1012.7
20260510050825 2 70 4.8 9.7 0.00 0.00 0.00 99 1012.7
20260510050703 2 68 4.8 9.7 0.00 0.00 0.00 99 1012.9
20260510050604 2 68 4.8 9.7 0.00 0.00 0.00 99 1012.7
20260510050503 2 67 4.8 9.7 0.00 0.00 0.00 99 1012.7
20260510050404 2 68 4.8 9.7 0.00 0.00 0.00 99 1012.5
20260510050303 2 69 4.8 9.7 0.00 0.00 0.00 99 1012.9
20260510050225 2 70 4.8 9.7 0.00 0.00 0.00 99 1012.9
20260510050124 2 71 4.8 9.7 0.00 0.00 0.00 99 1012.6
20260510050004 2 72 4.8 9.7 0.00 0.00 0.00 99 1012.7
20260510045903 2 72 4.8 9.7 0.00 0.00 0.00 99 1012.6
20260510045804 1 74 4.8 9.7 0.00 0.00 0.00 99 1012.5
20260510045703 1 74 4.8 9.7 0.00 0.00 0.00 99 1012.8
20260510045603 1 75 4.8 9.7 0.00 0.00 0.00 99 1012.7
20260510045504 1 76 3.2 9.7 0.00 0.00 0.00 99 1012.6
20260510045403 1 76 3.2 9.7 0.00 0.00 0.00 99 1012.5
20260510045325 1 76 3.2 9.7 0.00 0.00 0.00 99 1012.5
20260510045204 1 76 3.2 6.4 0.00 0.00 0.00 99 1012.5
20260510045104 1 74 1.6 4.8 0.00 0.00 0.00 99 1012.5
20260510045004 1 74 1.6 4.8 0.00 0.00 0.00 99 1012.6
20260510044903 1 73 1.6 4.8 0.00 0.00 0.00 99 1012.6
20260510044804 1 68 1.6 3.2 0.00 0.00 0.00 99 1012.5
20260510044703 1 68 1.6 3.2 0.00 0.00 0.00 99 1012.6
20260510044604 1 68 1.6 3.2 0.00 0.00 0.00 99 1012.7
20260510044504 1 68 1.6 3.2 0.00 0.00 0.00 99 1012.6
20260510044404 1 68 1.6 3.2 0.00 0.00 0.00 99 1012.5
20260510044304 1 68 1.6 3.2 0.00 0.00 0.00 99 1012.9
20260510044225 1 68 1.6 3.2 0.00 0.00 0.00 99 1012.9
20260510044104 1 68 1.6 3.2 0.00 0.00 0.00 99 1012.9
20260510044003 1 68 1.6 3.2 0.00 0.00 0.00 99 1012.6
20260510043904 1 68 1.6 3.2 0.00 0.00 0.00 99 1012.7
20260510043803 1 68 1.6 3.2 0.00 0.00 0.00 99 1012.8
20260510043704 1 68 1.6 3.2 0.00 0.00 0.00 99 1012.7
20260510043604 1 68 1.6 3.2 0.00 0.00 0.00 99 1012.7
20260510043504 1 68 1.6 3.2 0.00 0.00 0.00 99 1012.7
20260510043425 1 68 1.6 3.2 0.00 0.00 0.00 99 1012.7
20260510043303 1 68 1.6 3.2 0.00 0.00 0.00 99 1012.8
20260510043225 1 68 1.6 3.2 0.00 0.00 0.00 99 1012.8
20260510043103 1 68 1.6 3.2 0.00 0.00 0.00 99 1012.9
20260510043004 1 68 1.6 4.8 0.00 0.00 0.00 99 1012.7
20260510042903 1 68 1.6 4.8 0.00 0.00 0.00 99 1012.7
20260510042804 1 68 1.6 4.8 0.00 0.00 0.00 99 1012.6
20260510042703 1 69 1.6 4.8 0.00 0.00 0.00 99 1012.7
20260510042604 1 71 1.6 4.8 0.00 0.00 0.00 99 1012.8
20260510042503 1 72 1.6 4.8 0.00 0.00 0.00 99 1012.6
20260510042424 1 72 1.6 4.8 0.00 0.00 0.00 99 1012.6
20260510042306 1 72 1.6 4.8 0.00 0.00 0.00 99 1012.7
20260510042203 1 72 1.6 4.8 0.00 0.00 0.00 99 1012.6
20260510042103 1 72 1.6 4.8 0.00 0.00 0.00 99 1012.6
20260510042004 1 72 1.6 4.8 0.00 0.00 0.00 99 1012.7
20260510041904 1 72 1.6 4.8 0.00 0.00 0.00 99 1012.6
20260510041804 1 70 1.6 4.8 0.00 0.00 0.00 99 1012.9
20260510041704 1 63 1.6 4.8 0.00 0.00 0.00 99 1012.7
20260510041625 1 57 1.6 4.8 0.00 0.00 0.00 99 1012.7
20260510041504 1 47 1.6 4.8 0.00 0.00 0.00 99 1012.7
20260510041404 1 42 1.6 4.8 0.00 0.00 0.00 99 1012.9
20260510041303 1 35 1.6 4.8 0.00 0.00 0.00 99 1012.8
20260510041204 1 28 1.6 4.8 0.00 0.00 0.00 99 1012.7
20260510041103 1 25 1.6 4.8 0.00 0.00 0.00 99 1012.7
20260510041004 1 21 1.6 4.8 0.00 0.00 0.00 99 1012.7
20260510040924 1 17 1.6 4.8 0.00 0.00 0.00 99 1012.7
20260510040803 1 10 1.6 4.8 0.00 0.00 0.00 99 1012.5
20260510040704 1 8 1.6 4.8 0.00 0.00 0.00 99 1012.5
20260510040603 1 9 1.6 4.8 0.00 0.00 0.00 99 1012.6
20260510040503 1 10 1.6 4.8 0.00 0.00 0.00 99 1012.8
20260510040424 1 11 1.6 4.8 0.00 0.00 0.00 99 1012.8
20260510040325 1 12 1.6 4.8 0.00 0.00 0.00 99 1012.8
20260510040203 1 18 1.6 4.8 0.00 0.00 0.00 99 1012.8
20260510040104 1 20 1.6 4.8 0.00 0.00 0.00 99 1012.5
20260510040004 1 22 1.6 4.8 0.00 0.00 0.00 99 1012.7
20260510035925 1 25 1.6 4.8 0.00 0.00 0.00 99 1012.7
20260510035803 1 30 1.6 4.8 0.00 0.00 0.00 99 1012.6
20260510035704 1 29 1.6 4.8 0.00 0.00 0.00 99 1012.7
20260510035603 1 30 1.6 4.8 0.00 0.00 0.00 99 1012.8
20260510035503 1 29 1.6 4.8 0.00 0.00 0.00 99 1012.7
20260510035403 1 28 1.6 4.8 0.00 0.00 0.00 99 1012.5
20260510035324 1 29 1.6 4.8 0.00 0.00 0.00 99 1012.5
20260510035204 1 28 1.6 4.8 0.00 0.00 0.00 99 1012.6
20260510035103 1 30 1.6 4.8 0.00 0.00 0.00 99 1012.7
20260510035003 1 32 1.6 4.8 0.00 0.00 0.00 99 1012.5
20260510034924 1 33 1.6 4.8 0.00 0.00 0.00 99 1012.5
20260510034803 1 38 1.6 4.8 0.00 0.00 0.00 99 1012.5
20260510034724 1 43 1.6 3.2 0.00 0.00 0.00 99 1012.5
20260510034603 1 54 1.6 3.2 0.00 0.00 0.00 99 1012.8
20260510034503 1 62 1.6 3.2 0.00 0.00 0.00 99 1012.5
20260510034403 1 68 1.6 3.2 0.00 0.00 0.00 99 1012.6
20260510034303 1 70 1.6 3.2 0.00 0.00 0.00 99 1012.5
20260510034203 0 70 1.6 3.2 0.00 0.00 0.00 99 1012.5
20260510034125 0 67 1.6 3.2 0.00 0.00 0.00 99 1012.5
20260510034003 0 56 1.6 3.2 0.00 0.00 0.00 99 1012.5
20260510033904 0 50 1.6 3.2 0.00 0.00 0.00 99 1012.5
20260510033803 1 48 1.6 3.2 0.00 0.00 0.00 99 1012.5
20260510033704 1 44 1.6 3.2 0.00 0.00 0.00 99 1012.6
20260510033625 1 40 1.6 3.2 0.00 0.00 0.00 99 1012.6
20260510033503 1 34 1.6 3.2 0.00 0.00 0.00 99 1012.6
20260510033403 1 34 1.6 3.2 0.00 0.00 0.00 99 1012.4
20260510033303 1 34 1.6 3.2 0.00 0.00 0.00 99 1012.4
20260510033203 1 35 1.6 3.2 0.00 0.00 0.00 99 1012.5
20260510033103 1 39 0.0 3.2 0.00 0.00 0.00 99 1012.6
20260510033004 1 48 0.0 3.2 0.00 0.00 0.00 99 1012.4
20260510032903 1 55 0.0 1.6 0.00 0.00 0.00 99 1012.6
20260510032804 1 58 0.0 1.6 0.00 0.00 0.00 99 1012.6
20260510032703 1 63 0.0 1.6 0.00 0.00 0.00 99 1012.6
20260510032603 1 69 0.0 1.6 0.00 0.00 0.00 99 1012.6
20260510032504 1 69 1.6 1.6 0.00 0.00 0.00 99 1012.6
20260510032403 1 69 1.6 1.6 0.00 0.00 0.00 99 1012.6
20260510032306 1 70 1.6 3.2 0.00 0.00 0.00 99 1012.5
20260510032204 1 70 1.6 3.2 0.00 0.00 0.00 99 1012.2
20260510032104 1 70 1.6 3.2 0.00 0.00 0.00 99 1012.3
20260510032025 1 70 1.6 3.2 0.00 0.00 0.00 99 1012.3
20260510031925 1 70 1.6 3.2 0.00 0.00 0.00 99 1012.7
20260510031803 1 70 1.6 3.2 0.00 0.00 0.00 99 1012.6
20260510031704 1 70 1.6 3.2 0.00 0.00 0.00 99 1012.3
20260510031603 1 71 1.6 3.2 0.00 0.00 0.00 99 1012.4
20260510031503 1 71 1.6 3.2 0.00 0.00 0.00 99 1012.4
20260510031424 1 71 1.6 3.2 0.00 0.00 0.00 99 1012.4
20260510031303 1 72 1.6 3.2 0.00 0.00 0.00 99 1012.6
20260510031203 1 73 1.6 3.2 0.00 0.00 0.00 99 1012.6
20260510031103 1 74 1.6 3.2 0.00 0.00 0.00 99 1012.7
20260510031004 1 74 1.6 3.2 0.00 0.00 0.00 99 1012.4
20260510030903 1 75 1.6 3.2 0.00 0.00 0.00 99 1012.7
20260510030803 1 75 1.6 3.2 0.00 0.00 0.00 99 1012.5
20260510030703 1 76 1.6 3.2 0.00 0.00 0.00 99 1012.6
20260510030604 1 76 1.6 3.2 0.00 0.00 0.00 99 1012.4
20260510030503 1 77 1.6 3.2 0.00 0.00 0.00 99 1012.6
20260510030404 1 77 1.6 3.2 0.00 0.00 0.00 99 1012.6
20260510030325 1 77 1.6 3.2 0.00 0.00 0.00 99 1012.6
20260510030203 1 77 1.6 3.2 0.00 0.00 0.00 99 1012.6
20260510030103 1 77 1.6 3.2 0.00 0.00 0.00 99 1012.6
20260510030003 1 77 0.0 3.2 0.00 0.00 0.00 99 1012.6
20260510025903 1 77 0.0 3.2 0.00 0.00 0.00 99 1012.5
20260510025803 1 77 0.0 1.6 0.00 0.00 0.00 99 1012.6
20260510025703 1 77 0.0 1.6 0.00 0.00 0.00 99 1012.7
20260510025603 1 77 0.0 1.6 0.00 0.00 0.00 99 1012.4
20260510025503 1 77 0.0 1.6 0.00 0.00 0.00 99 1012.5
20260510025403 1 77 0.0 1.6 0.00 0.00 0.00 99 1012.6
20260510025306 1 0 0.0 0.0 0.00 0.00 0.00 99 1012.5
20260510025203 1 0 0.0 0.0 0.00 0.00 0.00 99 1012.5
20260510025125 1 0 0.0 0.0 0.00 0.00 0.00 99 1012.5
20260510025003 1 0 0.0 0.0 0.00 0.00 0.00 99 1012.7
20260510024904 1 0 0.0 0.0 0.00 0.00 0.00 99 1012.6
20260510024824 1 0 0.0 0.0 0.00 0.00 0.00 99 1012.6
20260510024704 1 77 0.0 1.6 0.00 0.00 0.00 99 1012.5
20260510024603 1 77 0.0 3.2 0.00 0.00 0.00 99 1012.7
20260510024503 1 76 0.0 3.2 0.00 0.00 0.00 99 1012.5
20260510024403 1 76 0.0 3.2 0.00 0.00 0.00 99 1012.5
20260510024303 1 76 0.0 3.2 0.00 0.00 0.00 99 1012.4
20260510024203 1 76 0.0 3.2 0.00 0.00 0.00 99 1012.4
20260510024103 1 76 1.6 3.2 0.00 0.00 0.00 99 1012.5
20260510024003 1 77 1.6 3.2 0.00 0.00 0.00 99 1012.6
20260510023924 1 77 1.6 3.2 0.00 0.00 0.00 99 1012.6
20260510023803 1 79 1.6 3.2 0.00 0.00 0.00 99 1012.6
20260510023703 1 79 1.6 3.2 0.00 0.00 0.00 99 1012.6
20260510023604 1 79 1.6 3.2 0.00 0.00 0.00 99 1012.4
20260510023503 1 78 1.6 3.2 0.00 0.00 0.00 99 1012.4
20260510023403 1 78 1.6 3.2 0.00 0.00 0.00 99 1012.4
20260510023325 1 77 1.6 3.2 0.00 0.00 0.00 99 1012.4
20260510023203 1 77 1.6 3.2 0.00 0.00 0.00 99 1012.5
20260510023103 1 76 1.6 3.2 0.00 0.00 0.00 99 1012.4
20260510023003 1 75 1.6 3.2 0.00 0.00 0.00 99 1012.5
20260510022903 1 74 1.6 3.2 0.00 0.00 0.00 99 1012.4
20260510022803 1 73 1.6 3.2 0.00 0.00 0.00 99 1012.3
20260510022704 1 73 1.6 3.2 0.00 0.00 0.00 99 1012.5
20260510022603 1 74 1.6 3.2 0.00 0.00 0.00 99 1012.6
20260510022504 1 76 1.6 4.8 0.00 0.00 0.00 99 1012.3
20260510022403 1 78 3.2 4.8 0.00 0.00 0.00 99 1012.4
20260510022306 1 80 3.2 4.8 0.00 0.00 0.00 99 1012.5
20260510022204 1 82 3.2 4.8 0.00 0.00 0.00 99 1012.5
20260510022103 1 85 3.2 4.8 0.00 0.00 0.00 99 1012.4
20260510022004 1 87 3.2 4.8 0.00 0.00 0.00 99 1012.6
20260510021903 1 88 3.2 4.8 0.00 0.00 0.00 99 1012.3
20260510021803 1 90 3.2 4.8 0.00 0.00 0.00 99 1012.2
20260510021724 1 92 3.2 4.8 0.00 0.00 0.00 99 1012.2
20260510021603 1 94 3.2 4.8 0.00 0.00 0.00 99 1012.4
20260510021503 1 95 3.2 4.8 0.00 0.00 0.00 99 1012.4
20260510021403 1 96 3.2 6.4 0.00 0.00 0.00 99 1012.4
20260510021304 1 95 3.2 6.4 0.00 0.00 0.00 99 1012.4
20260510021203 1 94 3.2 6.4 0.00 0.00 0.00 99 1012.4
20260510021103 1 93 4.8 6.4 0.00 0.00 0.00 99 1012.4
20260510021024 1 92 4.8 9.7 0.00 0.00 0.00 99 1012.4
20260510020903 1 88 4.8 9.7 0.00 0.00 0.00 99 1012.6
20260510020804 1 85 4.8 9.7 0.00 0.00 0.00 99 1012.5
20260510020703 1 81 4.8 9.7 0.00 0.00 0.00 99 1012.4
20260510020603 1 78 4.8 9.7 0.00 0.00 0.00 99 1012.6
20260510020503 1 77 4.8 9.7 0.00 0.00 0.00 99 1012.5
20260510020403 1 76 4.8 9.7 0.00 0.00 0.00 99 1012.6
20260510020303 1 74 4.8 9.7 0.00 0.00 0.00 99 1012.5
20260510020203 1 73 4.8 9.7 0.00 0.00 0.00 99 1012.5
20260510020103 1 72 4.8 9.7 0.00 0.00 0.00 99 1012.2
20260510020025 1 72 4.8 9.7 0.00 0.00 0.00 99 1012.2
20260510015924 1 76 4.8 11.3 0.00 0.00 0.00 99 1012.5
20260510015825 1 78 4.8 11.3 0.00 0.00 0.00 99 1012.4
20260510015724 1 80 6.4 11.3 0.00 0.00 0.00 99 1012.3
20260510015603 1 82 6.4 11.3 0.00 0.00 0.00 99 1012.2
20260510015504 1 84 6.4 11.3 0.00 0.00 0.00 99 1012.4
20260510015403 1 86 6.4 11.3 0.00 0.00 0.00 99 1012.4
20260510015306 1 88 6.4 11.3 0.00 0.00 0.00 99 1012.6
20260510015203 1 88 6.4 11.3 0.00 0.00 0.00 99 1012.4
20260510015103 1 89 6.4 11.3 0.00 0.00 0.00 99 1012.3
20260510015003 1 89 6.4 11.3 0.00 0.00 0.00 99 1012.2
20260510014903 1 88 6.4 11.3 0.00 0.00 0.00 99 1012.4
20260510014803 1 87 6.4 9.7 0.00 0.00 0.00 99 1012.4
20260510014703 1 87 6.4 9.7 0.00 0.00 0.00 99 1012.4
20260510014604 1 87 6.4 9.7 0.00 0.00 0.00 99 1012.5
20260510014503 1 86 6.4 9.7 0.00 0.00 0.00 99 1012.2
20260510014403 1 85 6.4 9.7 0.00 0.00 0.00 99 1012.4
20260510014303 1 84 6.4 9.7 0.00 0.00 0.00 99 1012.4
20260510014203 1 83 6.4 9.7 0.00 0.00 0.00 99 1012.2
20260510014103 1 82 6.4 9.7 0.00 0.00 0.00 99 1012.3
20260510014003 1 81 6.4 9.7 0.00 0.00 0.00 99 1012.5
20260510013903 1 81 4.8 9.7 0.00 0.00 0.00 99 1012.4
20260510013803 1 80 4.8 9.7 0.00 0.00 0.00 99 1012.3
20260510013703 1 79 4.8 9.7 0.00 0.00 0.00 99 1012.3
20260510013603 1 78 4.8 9.7 0.00 0.00 0.00 99 1012.4
20260510013524 1 78 4.8 9.7 0.00 0.00 0.00 99 1012.4
20260510013403 1 77 4.8 9.7 0.00 0.00 0.00 99 1012.5
20260510013303 1 76 4.8 9.7 0.00 0.00 0.00 99 1012.5
20260510013203 1 77 4.8 11.3 0.00 0.00 0.00 99 1012.4
20260510013103 1 75 6.4 11.3 0.00 0.00 0.00 99 1012.5
20260510013003 1 76 6.4 11.3 0.00 0.00 0.00 99 1012.6
20260510012903 2 76 6.4 11.3 0.00 0.00 0.00 99 1012.6
20260510012803 2 74 6.4 11.3 0.00 0.00 0.00 99 1012.4
20260510012703 2 73 6.4 11.3 0.00 0.00 0.00 99 1012.6
20260510012624 2 73 6.4 11.3 0.00 0.00 0.00 99 1012.6
20260510012504 2 72 6.4 11.3 0.00 0.00 0.00 99 1012.6
20260510012403 2 73 6.4 11.3 0.00 0.00 0.00 99 1012.7
20260510012306 2 72 6.4 11.3 0.00 0.00 0.00 99 1012.5
20260510012203 2 72 6.4 11.3 0.00 0.00 0.00 99 1012.5
20260510012104 2 71 6.4 12.9 0.00 0.00 0.00 99 1012.7
20260510012003 2 70 6.4 12.9 0.00 0.00 0.00 99 1012.4
20260510011903 2 70 6.4 12.9 0.00 0.00 0.00 99 1012.6
20260510011803 2 70 6.4 12.9 0.00 0.00 0.00 99 1012.3
20260510011703 2 69 6.4 12.9 0.00 0.00 0.00 99 1012.3
20260510011603 2 70 6.4 12.9 0.00 0.00 0.00 99 1012.6
20260510011503 2 69 4.8 12.9 0.00 0.00 0.00 99 1012.4
20260510011403 2 67 6.4 12.9 0.00 0.00 0.00 99 1012.5
20260510011303 2 67 6.4 12.9 0.00 0.00 0.00 99 1012.4
20260510011224 2 67 6.4 12.9 0.00 0.00 0.00 99 1012.4
20260510011125 2 67 6.4 12.9 0.00 0.00 0.00 99 1012.3
20260510011003 2 67 6.4 12.9 0.00 0.00 0.00 99 1012.6
20260510010903 2 66 4.8 12.9 0.00 0.00 0.00 99 1012.7
20260510010803 2 65 4.8 12.9 0.00 0.00 0.00 99 1012.5
20260510010703 2 64 4.8 12.9 0.00 0.00 0.00 99 1012.5
20260510010603 2 60 4.8 12.9 0.00 0.00 0.00 99 1012.4
20260510010503 2 59 4.8 12.9 0.00 0.00 0.00 99 1012.5
20260510010403 2 57 4.8 12.9 0.00 0.00 0.00 99 1012.6
20260510010303 2 53 3.2 9.7 0.00 0.00 0.00 99 1012.5
20260510010224 2 52 3.2 9.7 0.00 0.00 0.00 99 1012.5
20260510010103 2 47 3.2 6.4 0.00 0.00 0.00 99 1012.4
20260510010004 2 49 3.2 11.3 0.00 0.00 0.00 99 1012.6
20260510005903 2 50 3.2 11.3 0.00 0.00 0.00 99 1012.7
20260510005803 2 51 4.8 11.3 0.00 0.00 0.00 99 1012.4
20260510005703 2 51 4.8 11.3 0.00 0.00 0.00 99 1012.7
20260510005604 2 55 4.8 11.3 0.00 0.00 0.00 99 1012.6
20260510005503 2 57 4.8 11.3 0.00 0.00 0.00 99 1012.7
20260510005403 2 59 4.8 11.3 0.00 0.00 0.00 99 1012.5
20260510005306 2 61 6.4 12.9 0.00 0.00 0.00 99 1012.6
20260510005203 2 63 6.4 12.9 0.00 0.00 0.00 99 1012.5
20260510005103 2 65 6.4 12.9 0.00 0.00 0.00 99 1012.7
20260510005003 2 67 6.4 12.9 0.00 0.00 0.00 99 1012.6
20260510004903 2 69 8.0 12.9 0.00 0.00 0.00 99 1012.7
20260510004824 2 71 8.0 12.9 0.00 0.00 0.00 99 1012.7
20260510004704 2 72 8.0 12.9 0.00 0.00 0.00 99 1012.6
20260510004603 2 73 8.0 12.9 0.00 0.00 0.00 99 1012.7
20260510004524 2 74 8.0 12.9 0.00 0.00 0.00 99 1012.7
20260510004403 2 75 8.0 12.9 0.00 0.00 0.00 99 1012.8
20260510004303 2 75 8.0 12.9 0.00 0.00 0.00 99 1012.8
20260510004203 2 74 8.0 12.9 0.00 0.00 0.00 99 1012.6
20260510004103 2 76 8.0 12.9 0.00 0.00 0.00 99 1012.5
20260510004003 2 75 8.0 12.9 0.00 0.00 0.00 99 1012.6
20260510003903 2 74 8.0 12.9 0.00 0.00 0.00 99 1012.7
20260510003803 2 74 8.0 12.9 0.00 0.00 0.00 99 1012.5
20260510003703 2 75 8.0 12.9 0.00 0.00 0.00 99 1012.7
20260510003603 2 74 8.0 12.9 0.00 0.00 0.00 98 1012.7
20260510003524 2 74 8.0 12.9 0.00 0.00 0.00 98 1012.7
20260510003403 2 74 8.0 14.5 0.00 0.00 0.00 98 1012.7
20260510003304 2 74 8.0 14.5 0.00 0.00 0.00 98 1012.7
20260510003203 2 74 8.0 14.5 0.00 0.00 0.00 98 1012.7
20260510003103 2 72 8.0 14.5 0.00 0.00 0.00 98 1012.6
20260510003004 2 73 8.0 14.5 0.00 0.00 0.00 98 1012.8
20260510002924 2 72 8.0 14.5 0.00 0.00 0.00 98 1012.8
20260510002824 2 71 8.0 14.5 0.00 0.00 0.00 98 1012.9
20260510002703 2 69 8.0 14.5 0.00 0.00 0.00 98 1012.8
20260510002604 3 69 8.0 14.5 0.00 0.00 0.00 98 1012.7
20260510002524 3 67 8.0 14.5 0.00 0.00 0.00 98 1012.7
20260510002404 3 66 8.0 14.5 0.00 0.00 0.00 98 1012.8
20260510002306 3 61 6.4 14.5 0.00 0.00 0.00 98 1012.6
20260510002203 3 58 6.4 14.5 0.00 0.00 0.00 98 1012.9
20260510002103 3 57 6.4 12.9 0.00 0.00 0.00 98 1012.9
20260510002003 3 55 6.4 12.9 0.00 0.00 0.00 98 1012.9
20260510001903 3 56 6.4 12.9 0.00 0.00 0.00 98 1012.6
20260510001803 3 56 6.4 12.9 0.00 0.00 0.00 98 1012.8
20260510001703 3 57 6.4 12.9 0.00 0.00 0.00 98 1012.8
20260510001603 3 56 6.4 12.9 0.00 0.00 0.00 98 1012.9
20260510001503 3 57 6.4 12.9 0.00 0.00 0.00 98 1012.7
20260510001403 3 57 6.4 12.9 0.00 0.00 0.00 98 1012.6
20260510001303 3 59 6.4 12.9 0.00 0.00 0.00 98 1012.9
20260510001203 3 61 6.4 12.9 0.00 0.00 0.00 98 1012.8
20260510001103 3 61 6.4 12.9 0.00 0.00 0.00 98 1012.9
20260510001003 3 59 6.4 12.9 0.00 0.00 0.00 98 1012.8
20260510000903 3 57 4.8 12.9 0.00 0.00 0.00 98 1012.8
20260510000803 3 56 4.8 11.3 0.00 0.00 0.00 98 1012.7
20260510000704 3 59 4.8 11.3 0.00 0.00 0.00 98 1012.8
20260510000603 3 59 4.8 11.3 0.00 0.00 0.00 98 1012.9
20260510000504 3 59 4.8 11.3 0.00 0.00 0.00 98 1012.9
20260510000404 3 59 4.8 11.3 0.00 0.00 0.00 98 1012.8
20260510000326 3 61 4.8 11.3 0.00 0.00 0.00 98 1012.8
20260510000204 3 62 4.8 11.3 0.00 0.00 0.00 98 1012.9
20260510000103 3 64 4.8 11.3 0.00 0.00 0.00 98 1013.0
20260510000004 3 70 4.8 11.3 0.00 0.00 0.00 98 1013.1
20260509235903 3 69 4.8 11.3 0.00 0.00 0.00 98 1012.9
20260509235824 3 70 4.8 11.3 0.00 0.00 0.00 98 1012.9
20260509235703 3 71 6.4 11.3 0.00 0.00 0.00 98 1012.9
20260509235603 3 69 6.4 11.3 0.00 0.00 0.00 98 1012.9
20260509235503 3 68 6.4 11.3 0.00 0.00 0.00 98 1012.9
20260509235403 3 68 6.4 11.3 0.00 0.00 0.00 98 1012.8
20260509235306 3 67 6.4 11.3 0.00 0.00 0.00 98 1012.8
20260509235203 3 67 6.4 12.9 0.00 0.00 0.00 98 1012.9
20260509235103 3 66 6.4 12.9 0.00 0.00 0.00 98 1012.8
20260509235003 3 65 6.4 12.9 0.00 0.00 0.00 98 1012.8
20260509234903 3 65 6.4 12.9 0.00 0.00 0.00 98 1013.0
20260509234803 3 65 6.4 14.5 0.00 0.00 0.00 98 1013.0
20260509234703 3 63 6.4 14.5 0.00 0.00 0.00 98 1013.0
20260509234603 3 63 8.0 14.5 0.00 0.00 0.00 98 1012.7
20260509234503 3 63 8.0 14.5 0.00 0.00 0.00 98 1012.8
20260509234403 3 62 8.0 14.5 0.00 0.00 0.00 98 1012.8
20260509234303 3 62 8.0 14.5 0.00 0.00 0.00 98 1012.7
20260509234203 3 60 8.0 14.5 0.00 0.00 0.00 98 1012.5
20260509234103 3 61 8.0 14.5 0.00 0.00 0.00 98 1012.7
20260509234003 3 60 6.4 14.5 0.00 0.00 0.00 98 1012.8
20260509233903 3 60 6.4 14.5 0.00 0.00 0.00 98 1012.8
20260509233804 3 58 6.4 14.5 0.00 0.00 0.00 98 1012.8
20260509233703 3 58 6.4 14.5 0.00 0.00 0.00 98 1012.8
20260509233603 3 57 6.4 14.5 0.00 0.00 0.00 98 1012.6
20260509233503 3 54 6.4 14.5 0.00 0.00 0.00 98 1012.8
20260509233403 3 54 8.0 14.5 0.00 0.00 0.00 98 1012.6
20260509233303 3 55 8.0 14.5 0.00 0.00 0.00 98 1012.6
20260509233203 3 57 8.0 17.7 0.00 0.00 0.00 98 1012.7
20260509233103 3 57 9.7 17.7 0.00 0.00 0.00 98 1012.9
20260509233003 3 57 9.7 17.7 0.00 0.00 0.00 98 1012.8
20260509232903 3 57 9.7 17.7 0.00 0.00 0.00 98 1012.8
20260509232803 3 59 9.7 17.7 0.00 0.00 0.00 98 1012.7
20260509232703 3 61 9.7 17.7 0.00 0.00 0.00 98 1012.8
20260509232603 3 64 9.7 17.7 0.00 0.00 0.00 98 1012.8
20260509232503 3 67 9.7 17.7 0.00 0.00 0.00 98 1012.7
20260509232403 3 69 9.7 17.7 0.00 0.00 0.00 98 1012.7
20260509232306 3 70 9.7 17.7 0.00 0.00 0.00 98 1012.8
20260509232203 3 71 9.7 17.7 0.00 0.00 0.00 98 1012.7
20260509232103 3 73 9.7 16.1 0.00 0.00 0.00 98 1012.6
20260509232003 3 75 9.7 14.5 0.00 0.00 0.00 98 1012.8
20260509231924 2 76 9.7 14.5 0.00 0.00 0.00 98 1012.8
20260509231803 2 77 9.7 14.5 0.00 0.00 0.00 97 1012.8
20260509231703 2 76 9.7 14.5 0.00 0.00 0.00 97 1012.8
20260509231603 2 77 9.7 14.5 0.00 0.00 0.00 97 1012.8
20260509231503 3 78 9.7 14.5 0.00 0.00 0.00 97 1012.7
20260509231403 3 78 9.7 14.5 0.00 0.00 0.00 97 1012.8
20260509231303 3 76 9.7 17.7 0.00 0.00 0.00 97 1012.8
20260509231203 3 75 9.7 17.7 0.00 0.00 0.00 97 1012.6
20260509231103 3 73 9.7 17.7 0.00 0.00 0.00 97 1012.8
20260509231003 3 73 9.7 17.7 0.00 0.00 0.00 97 1012.7
20260509230903 3 72 9.7 17.7 0.00 0.00 0.00 97 1012.7
20260509230803 3 70 9.7 17.7 0.00 0.00 0.00 97 1012.8
20260509230704 3 69 8.0 17.7 0.00 0.00 0.00 97 1012.7
20260509230603 3 67 8.0 17.7 0.00 0.00 0.00 97 1012.7
20260509230503 3 65 8.0 17.7 0.00 0.00 0.00 96 1012.5
20260509230424 3 64 8.0 17.7 0.00 0.00 0.00 96 1012.5
20260509230324 3 61 8.0 17.7 0.00 0.00 0.00 96 1012.8
20260509230203 3 62 6.4 17.7 0.00 0.00 0.00 96 1012.7
20260509230124 3 65 6.4 12.9 0.00 0.00 0.00 96 1012.7
20260509230004 3 62 6.4 12.9 0.00 0.00 0.00 96 1012.8
20260509225903 3 62 6.4 11.3 0.00 0.00 0.00 96 1012.8
20260509225803 3 64 6.4 11.3 0.00 0.00 0.00 96 1012.8